| time (UTC) | temp F | wind direction | speed MPH | gust MPH | rain 1hr in | rain 24hr in | rain mn in | humidity % | barometer mb |
| 20260905234841 | 86 | 5 | 2.0 | 5.0 | 0.00 | 0.00 | 0.00 | 26 | 1019.9 |
| 20260905234657 | 86 | 9 | 2.0 | 5.0 | 0.00 | 0.00 | 0.00 | 25 | 1019.9 |
| 20260905234634 | 86 | 9 | 2.0 | 5.0 | 0.00 | 0.00 | 0.00 | 26 | 1019.9 |
| 20260905234541 | 86 | 344 | 2.0 | 5.0 | 0.00 | 0.00 | 0.00 | 26 | 1019.9 |
| 20260905234333 | 87 | 34 | 2.0 | 5.0 | 0.00 | 0.00 | 0.00 | 26 | 1020.0 |
| 20260905234232 | 87 | 32 | 2.0 | 5.0 | 0.00 | 0.00 | 0.00 | 26 | 1020.0 |
| 20260905234151 | 87 | 46 | 2.0 | 5.0 | 0.00 | 0.00 | 0.00 | 25 | 1020.0 |
| 20260905234132 | 87 | 46 | 2.0 | 5.0 | 0.00 | 0.00 | 0.00 | 25 | 1019.9 |
| 20260905234030 | 87 | 9 | 2.0 | 6.0 | 0.00 | 0.00 | 0.00 | 26 | 1020.0 |
| 20260905233930 | 87 | 9 | 3.0 | 6.0 | 0.00 | 0.00 | 0.00 | 26 | 1020.0 |
| 20260905233830 | 87 | 336 | 3.0 | 6.0 | 0.00 | 0.00 | 0.00 | 26 | 1020.0 |
| 20260905233728 | 87 | 30 | 3.0 | 6.0 | 0.00 | 0.00 | 0.00 | 25 | 1019.9 |
| 20260905233646 | 87 | 11 | 3.0 | 6.0 | 0.00 | 0.00 | 0.00 | 25 | 1019.9 |
| 20260905233626 | 87 | 32 | 3.0 | 6.0 | 0.00 | 0.00 | 0.00 | 24 | 1019.9 |
| 20260905233526 | 87 | 32 | 3.0 | 6.0 | 0.00 | 0.00 | 0.00 | 25 | 1019.9 |
| 20260905233429 | 87 | 32 | 3.0 | 6.0 | 0.00 | 0.00 | 0.00 | 24 | 1019.9 |
| 20260905233218 | 87 | 37 | 4.0 | 6.0 | 0.00 | 0.00 | 0.00 | 24 | 1019.9 |
| 20260905233123 | 87 | 38 | 4.0 | 6.0 | 0.00 | 0.00 | 0.00 | 24 | 1019.9 |
| 20260905232916 | 87 | 0 | 4.0 | 7.0 | 0.00 | 0.00 | 0.00 | 25 | 1019.9 |
| 20260905232815 | 88 | 28 | 4.0 | 7.0 | 0.00 | 0.00 | 0.00 | 24 | 1019.9 |
| 20260905232710 | 88 | 33 | 4.0 | 7.0 | 0.00 | 0.00 | 0.00 | 24 | 1019.8 |
| 20260905232634 | 88 | 32 | 3.0 | 7.0 | 0.00 | 0.00 | 0.00 | 24 | 1019.8 |
| 20260905232617 | 88 | 31 | 3.0 | 7.0 | 0.00 | 0.00 | 0.00 | 23 | 1019.8 |
| 20260905232416 | 88 | 48 | 3.0 | 7.0 | 0.00 | 0.00 | 0.00 | 24 | 1019.8 |
| 20260905232206 | 88 | 0 | 3.0 | 7.0 | 0.00 | 0.00 | 0.00 | 24 | 1019.8 |
| 20260905232128 | 88 | 355 | 3.0 | 7.0 | 0.00 | 0.00 | 0.00 | 24 | 1019.8 |
| 20260905232106 | 88 | 12 | 3.0 | 7.0 | 0.00 | 0.00 | 0.00 | 24 | 1019.8 |
| 20260905232006 | 88 | 10 | 3.0 | 7.0 | 0.00 | 0.00 | 0.00 | 24 | 1019.8 |
| 20260905231904 | 88 | 319 | 3.0 | 7.0 | 0.00 | 0.00 | 0.00 | 24 | 1019.8 |
| 20260905231803 | 88 | 343 | 3.0 | 6.0 | 0.00 | 0.00 | 0.00 | 23 | 1019.9 |
| 20260905231659 | 89 | 32 | 3.0 | 6.0 | 0.00 | 0.00 | 0.00 | 24 | 1019.8 |
| 20260905231622 | 89 | 327 | 3.0 | 6.0 | 0.00 | 0.00 | 0.00 | 24 | 1019.9 |
| 20260905231559 | 89 | 5 | 3.0 | 6.0 | 0.00 | 0.00 | 0.00 | 23 | 1019.9 |
| 20260905231459 | 89 | 351 | 3.0 | 6.0 | 0.00 | 0.00 | 0.00 | 22 | 1019.8 |
| 20260905231358 | 89 | 36 | 3.0 | 6.0 | 0.00 | 0.00 | 0.00 | 22 | 1019.8 |
| 20260905231259 | 89 | 49 | 2.0 | 6.0 | 0.00 | 0.00 | 0.00 | 23 | 1019.8 |
| 20260905231152 | 89 | 53 | 2.0 | 6.0 | 0.00 | 0.00 | 0.00 | 23 | 1019.8 |
| 20260905231116 | 89 | 80 | 2.0 | 6.0 | 0.00 | 0.00 | 0.00 | 22 | 1019.8 |
| 20260905231052 | 89 | 88 | 2.0 | 6.0 | 0.00 | 0.00 | 0.00 | 23 | 1019.8 |
| 20260905230959 | 89 | 61 | 2.0 | 6.0 | 0.00 | 0.00 | 0.00 | 23 | 1019.8 |
| 20260905230752 | 90 | 22 | 1.0 | 4.0 | 0.00 | 0.00 | 0.00 | 23 | 1019.8 |
| 20260905230650 | 90 | 320 | 1.0 | 4.0 | 0.00 | 0.00 | 0.00 | 23 | 1019.8 |
| 20260905230610 | 90 | 320 | 1.0 | 4.0 | 0.00 | 0.00 | 0.00 | 23 | 1019.8 |
| 20260905230550 | 90 | 320 | 1.0 | 4.0 | 0.00 | 0.00 | 0.00 | 23 | 1019.8 |
| 20260905230451 | 90 | 320 | 1.0 | 4.0 | 0.00 | 0.00 | 0.00 | 23 | 1019.8 |
| 20260905230400 | 90 | 69 | 2.0 | 8.0 | 0.00 | 0.00 | 0.00 | 23 | 1019.8 |
| 20260905230103 | 90 | 69 | 3.0 | 8.0 | 0.00 | 0.00 | 0.00 | 22 | 1019.8 |
| 20260905230044 | 90 | 69 | 3.0 | 8.0 | 0.00 | 0.00 | 0.00 | 22 | 1019.8 |
| 20260905225942 | 90 | 69 | 3.0 | 8.0 | 0.00 | 0.00 | 0.00 | 21 | 1019.8 |
| 20260905225846 | 90 | 46 | 4.0 | 11.0 | 0.00 | 0.00 | 0.00 | 22 | 1019.8 |
| 20260905225634 | 90 | 40 | 4.0 | 11.0 | 0.00 | 0.00 | 0.00 | 22 | 1019.7 |
| 20260905225558 | 91 | 9 | 4.0 | 11.0 | 0.00 | 0.00 | 0.00 | 22 | 1019.7 |
| 20260905225535 | 91 | 11 | 3.0 | 11.0 | 0.00 | 0.00 | 0.00 | 22 | 1019.7 |
| 20260905225434 | 91 | 40 | 3.0 | 11.0 | 0.00 | 0.00 | 0.00 | 22 | 1019.7 |
| 20260905225334 | 91 | 30 | 3.0 | 11.0 | 0.00 | 0.00 | 0.00 | 23 | 1019.7 |
| 20260905225233 | 91 | 57 | 3.0 | 11.0 | 0.00 | 0.00 | 0.00 | 22 | 1019.7 |
| 20260905225159 | 91 | 80 | 3.0 | 11.0 | 0.00 | 0.00 | 0.00 | 21 | 1019.7 |
| 20260905225028 | 91 | 148 | 2.0 | 11.0 | 0.00 | 0.00 | 0.00 | 21 | 1019.8 |
| 20260905224929 | 91 | 54 | 2.0 | 6.0 | 0.00 | 0.00 | 0.00 | 22 | 1019.7 |
| 20260905224829 | 91 | 61 | 2.0 | 6.0 | 0.00 | 0.00 | 0.00 | 22 | 1019.8 |
| 20260905224727 | 91 | 76 | 2.0 | 6.0 | 0.00 | 0.00 | 0.00 | 22 | 1019.7 |
| 20260905224624 | 90 | 81 | 2.0 | 6.0 | 0.00 | 0.00 | 0.00 | 21 | 1019.7 |
| 20260905224545 | 90 | 69 | 2.0 | 6.0 | 0.00 | 0.00 | 0.00 | 22 | 1019.7 |
| 20260905224524 | 90 | 68 | 2.0 | 6.0 | 0.00 | 0.00 | 0.00 | 22 | 1019.8 |
| 20260905224424 | 90 | 68 | 3.0 | 6.0 | 0.00 | 0.00 | 0.00 | 22 | 1019.8 |
| 20260905224331 | 90 | 69 | 3.0 | 6.0 | 0.00 | 0.00 | 0.00 | 22 | 1019.8 |
| 20260905224038 | 91 | 77 | 3.0 | 9.0 | 0.00 | 0.00 | 0.00 | 22 | 1019.7 |
| 20260905224017 | 91 | 84 | 3.0 | 9.0 | 0.00 | 0.00 | 0.00 | 22 | 1019.7 |
| 20260905223918 | 91 | 85 | 3.0 | 9.0 | 0.00 | 0.00 | 0.00 | 22 | 1019.7 |
| 20260905223816 | 91 | 85 | 3.0 | 9.0 | 0.00 | 0.00 | 0.00 | 22 | 1019.7 |
| 20260905223713 | 91 | 44 | 3.0 | 9.0 | 0.00 | 0.00 | 0.00 | 21 | 1019.8 |
| 20260905223608 | 91 | 44 | 3.0 | 9.0 | 0.00 | 0.00 | 0.00 | 21 | 1019.7 |
| 20260905223532 | 92 | 60 | 3.0 | 9.0 | 0.00 | 0.00 | 0.00 | 22 | 1019.7 |
| 20260905223509 | 92 | 19 | 3.0 | 9.0 | 0.00 | 0.00 | 0.00 | 22 | 1019.7 |
| 20260905223408 | 92 | 43 | 2.0 | 9.0 | 0.00 | 0.00 | 0.00 | 20 | 1019.8 |
| 20260905223308 | 92 | 49 | 2.0 | 9.0 | 0.00 | 0.00 | 0.00 | 21 | 1019.7 |
| 20260905223211 | 93 | 34 | 1.0 | 9.0 | 0.00 | 0.00 | 0.00 | 22 | 1019.7 |
| 20260905223025 | 93 | 29 | 1.0 | 9.0 | 0.00 | 0.00 | 0.00 | 20 | 1019.7 |
| 20260905223004 | 93 | 20 | 1.0 | 9.0 | 0.00 | 0.00 | 0.00 | 20 | 1019.7 |
| 20260905222922 | 93 | 42 | 1.0 | 9.0 | 0.00 | 0.00 | 0.00 | 19 | 1019.8 |
| 20260905222520 | 94 | 17 | 2.0 | 5.0 | 0.00 | 0.00 | 0.00 | 19 | 1019.7 |
| 20260905222500 | 94 | 266 | 2.0 | 5.0 | 0.00 | 0.00 | 0.00 | 19 | 1019.7 |
| 20260905222400 | 94 | 46 | 2.0 | 8.0 | 0.00 | 0.00 | 0.00 | 19 | 1019.8 |
| 20260905222305 | 94 | 46 | 2.0 | 8.0 | 0.00 | 0.00 | 0.00 | 21 | 1019.7 |
| 20260905222057 | 94 | 329 | 3.0 | 9.0 | 0.00 | 0.00 | 0.00 | 21 | 1019.8 |
| 20260905222013 | 94 | 329 | 3.0 | 9.0 | 0.00 | 0.00 | 0.00 | 20 | 1019.8 |
| 20260905221954 | 94 | 329 | 3.0 | 9.0 | 0.00 | 0.00 | 0.00 | 20 | 1019.8 |
| 20260905221852 | 94 | 344 | 3.0 | 9.0 | 0.00 | 0.00 | 0.00 | 21 | 1019.8 |
| 20260905221752 | 94 | 9 | 3.0 | 9.0 | 0.00 | 0.00 | 0.00 | 20 | 1019.8 |
| 20260905221650 | 94 | 9 | 3.0 | 9.0 | 0.00 | 0.00 | 0.00 | 20 | 1019.9 |
| 20260905221546 | 94 | 26 | 3.0 | 9.0 | 0.00 | 0.00 | 0.00 | 20 | 1019.8 |
| 20260905221508 | 94 | 57 | 3.0 | 9.0 | 0.00 | 0.00 | 0.00 | 21 | 1019.9 |
| 20260905221447 | 94 | 59 | 3.0 | 9.0 | 0.00 | 0.00 | 0.00 | 21 | 1019.9 |
| 20260905221346 | 94 | 44 | 2.0 | 9.0 | 0.00 | 0.00 | 0.00 | 22 | 1019.9 |
| 20260905221246 | 94 | 339 | 2.0 | 9.0 | 0.00 | 0.00 | 0.00 | 21 | 1019.9 |
| 20260905221143 | 94 | 338 | 2.0 | 6.0 | 0.00 | 0.00 | 0.00 | 23 | 1019.8 |
| 20260905221109 | 93 | 265 | 2.0 | 4.0 | 0.00 | 0.00 | 0.00 | 21 | 1019.9 |
| 20260905220938 | 93 | 255 | 2.0 | 4.0 | 0.00 | 0.00 | 0.00 | 21 | 1019.9 |
| 20260905220838 | 93 | 274 | 1.0 | 4.0 | 0.00 | 0.00 | 0.00 | 22 | 1019.9 |
| 20260905220738 | 93 | 207 | 1.0 | 4.0 | 0.00 | 0.00 | 0.00 | 22 | 1019.9 |
| 20260905220638 | 92 | 204 | 1.0 | 4.0 | 0.00 | 0.00 | 0.00 | 22 | 1019.8 |
| 20260905220432 | 92 | 90 | 1.0 | 4.0 | 0.00 | 0.00 | 0.00 | 22 | 1019.9 |
| 20260905220339 | 92 | 159 | 1.0 | 4.0 | 0.00 | 0.00 | 0.00 | 23 | 1019.9 |
| 20260905220132 | 91 | 81 | 1.0 | 4.0 | 0.00 | 0.00 | 0.00 | 22 | 1019.9 |
| 20260905220028 | 91 | 81 | 2.0 | 4.0 | 0.00 | 0.00 | 0.00 | 21 | 1019.9 |
| 20260905215929 | 91 | 81 | 2.0 | 4.0 | 0.00 | 0.00 | 0.00 | 23 | 1019.9 |
| 20260905215828 | 91 | 81 | 2.0 | 5.0 | 0.00 | 0.00 | 0.00 | 22 | 1020.0 |
| 20260905215728 | 90 | 81 | 3.0 | 9.0 | 0.00 | 0.00 | 0.00 | 21 | 1020.0 |
| 20260905215625 | 90 | 81 | 4.0 | 9.0 | 0.00 | 0.00 | 0.00 | 21 | 1020.0 |
| 20260905215520 | 90 | 81 | 4.0 | 9.0 | 0.00 | 0.00 | 0.00 | 22 | 1020.0 |
| 20260905215427 | 90 | 81 | 4.0 | 9.0 | 0.00 | 0.00 | 0.00 | 21 | 1020.0 |
| 20260905215220 | 90 | 78 | 5.0 | 11.0 | 0.00 | 0.00 | 0.00 | 22 | 1020.0 |
| 20260905215119 | 90 | 76 | 5.0 | 11.0 | 0.00 | 0.00 | 0.00 | 21 | 1020.0 |
| 20260905215020 | 91 | 79 | 5.0 | 11.0 | 0.00 | 0.00 | 0.00 | 21 | 1020.2 |
| 20260905214938 | 91 | 68 | 4.0 | 11.0 | 0.00 | 0.00 | 0.00 | 21 | 1020.2 |
| 20260905214918 | 91 | 65 | 4.0 | 11.0 | 0.00 | 0.00 | 0.00 | 21 | 1020.2 |
| 20260905214828 | 91 | 76 | 4.0 | 11.0 | 0.00 | 0.00 | 0.00 | 21 | 1020.2 |
| 20260905214510 | 92 | 65 | 4.0 | 11.0 | 0.00 | 0.00 | 0.00 | 20 | 1020.2 |
| 20260905214431 | 93 | 12 | 4.0 | 11.0 | 0.00 | 0.00 | 0.00 | 20 | 1020.2 |
| 20260905214408 | 93 | 44 | 4.0 | 11.0 | 0.00 | 0.00 | 0.00 | 20 | 1020.2 |
| 20260905214316 | 93 | 71 | 3.0 | 10.0 | 0.00 | 0.00 | 0.00 | 20 | 1020.2 |
| 20260905214140 | 93 | 24 | 3.0 | 9.0 | 0.00 | 0.00 | 0.00 | 20 | 1020.2 |
| 20260905213902 | 93 | 24 | 3.0 | 9.0 | 0.00 | 0.00 | 0.00 | 20 | 1020.3 |
| 20260905213809 | 94 | 350 | 3.0 | 9.0 | 0.00 | 0.00 | 0.00 | 21 | 1020.3 |
| 20260905213601 | 94 | 52 | 2.0 | 9.0 | 0.00 | 0.00 | 0.00 | 21 | 1020.2 |
| 20260905213457 | 94 | 81 | 2.0 | 9.0 | 0.00 | 0.00 | 0.00 | 21 | 1020.2 |
| 20260905213420 | 94 | 37 | 2.0 | 9.0 | 0.00 | 0.00 | 0.00 | 19 | 1020.2 |
| 20260905213403 | 94 | 37 | 2.0 | 9.0 | 0.00 | 0.00 | 0.00 | 19 | 1020.2 |
| 20260905213156 | 94 | 132 | 3.0 | 7.0 | 0.00 | 0.00 | 0.00 | 21 | 1020.3 |
| 20260905213055 | 93 | 138 | 3.0 | 7.0 | 0.00 | 0.00 | 0.00 | 21 | 1020.3 |
| 20260905213001 | 93 | 113 | 3.0 | 12.0 | 0.00 | 0.00 | 0.00 | 19 | 1020.3 |
| 20260905212955 | 93 | 142 | 4.0 | 12.0 | 0.00 | 0.00 | 0.00 | 19 | 1020.4 |
| 20260905212750 | 93 | 190 | 5.0 | 13.0 | 0.00 | 0.00 | 0.00 | 20 | 1020.3 |
| 20260905212656 | 93 | 190 | 6.0 | 13.0 | 0.00 | 0.00 | 0.00 | 23 | 1020.3 |
| 20260905212443 | 93 | 332 | 6.0 | 13.0 | 0.00 | 0.00 | 0.00 | 21 | 1020.4 |
| 20260905212408 | 93 | 34 | 6.0 | 13.0 | 0.00 | 0.00 | 0.00 | 21 | 1020.4 |
| 20260905212344 | 93 | 27 | 6.0 | 13.0 | 0.00 | 0.00 | 0.00 | 20 | 1020.4 |
| 20260905212257 | 93 | 42 | 7.0 | 13.0 | 0.00 | 0.00 | 0.00 | 19 | 1020.5 |
| 20260905211949 | 94 | 88 | 5.0 | 13.0 | 0.00 | 0.00 | 0.00 | 20 | 1020.5 |
| 20260905211942 | 94 | 78 | 5.0 | 13.0 | 0.00 | 0.00 | 0.00 | 20 | 1020.5 |
| 20260905211738 | 94 | 72 | 4.0 | 11.0 | 0.00 | 0.00 | 0.00 | 21 | 1020.5 |
| 20260905211638 | 94 | 57 | 4.0 | 11.0 | 0.00 | 0.00 | 0.00 | 22 | 1020.5 |
| 20260905211537 | 94 | 98 | 3.0 | 10.0 | 0.00 | 0.00 | 0.00 | 21 | 1020.5 |
| 20260905211503 | 94 | 44 | 3.0 | 10.0 | 0.00 | 0.00 | 0.00 | 21 | 1020.6 |
| 20260905211339 | 94 | 90 | 2.0 | 10.0 | 0.00 | 0.00 | 0.00 | 21 | 1020.5 |
| 20260905211131 | 94 | 333 | 2.0 | 10.0 | 0.00 | 0.00 | 0.00 | 21 | 1020.5 |
| 20260905211032 | 94 | 327 | 2.0 | 10.0 | 0.00 | 0.00 | 0.00 | 21 | 1020.6 |
| 20260905210956 | 94 | 33 | 3.0 | 10.0 | 0.00 | 0.00 | 0.00 | 20 | 1020.6 |
| 20260905210828 | 94 | 40 | 3.0 | 10.0 | 0.00 | 0.00 | 0.00 | 19 | 1020.6 |
| 20260905210728 | 94 | 123 | 3.0 | 10.0 | 0.00 | 0.00 | 0.00 | 20 | 1020.6 |
| 20260905210627 | 94 | 111 | 3.0 | 7.0 | 0.00 | 0.00 | 0.00 | 19 | 1020.6 |
| 20260905210526 | 93 | 111 | 3.0 | 7.0 | 0.00 | 0.00 | 0.00 | 19 | 1020.6 |
| 20260905210426 | 93 | 111 | 3.0 | 7.0 | 0.00 | 0.00 | 0.00 | 20 | 1020.6 |
| 20260905210343 | 93 | 267 | 3.0 | 7.0 | 0.00 | 0.00 | 0.00 | 20 | 1020.6 |
| 20260905210324 | 93 | 267 | 3.0 | 7.0 | 0.00 | 0.00 | 0.00 | 21 | 1020.6 |
| 20260905210224 | 93 | 267 | 3.0 | 7.0 | 0.00 | 0.00 | 0.00 | 21 | 1020.5 |
| 20260905210121 | 93 | 319 | 3.0 | 8.0 | 0.00 | 0.00 | 0.00 | 22 | 1020.6 |
| 20260905210023 | 93 | 255 | 3.0 | 8.0 | 0.00 | 0.00 | 0.00 | 22 | 1020.6 |
| 20260905205837 | 92 | 299 | 3.0 | 8.0 | 0.00 | 0.00 | 0.00 | 21 | 1020.6 |
| 20260905205814 | 92 | 252 | 3.0 | 8.0 | 0.00 | 0.00 | 0.00 | 21 | 1020.6 |
| 20260905205714 | 92 | 260 | 3.0 | 9.0 | 0.00 | 0.00 | 0.00 | 23 | 1020.6 |
| 20260905205613 | 92 | 317 | 4.0 | 9.0 | 0.00 | 0.00 | 0.00 | 20 | 1020.6 |
| 20260905205514 | 92 | 317 | 4.0 | 10.0 | 0.00 | 0.00 | 0.00 | 20 | 1020.6 |
| 20260905205408 | 92 | 317 | 5.0 | 10.0 | 0.00 | 0.00 | 0.00 | 21 | 1020.6 |
| 20260905205331 | 92 | 309 | 5.0 | 10.0 | 0.00 | 0.00 | 0.00 | 21 | 1020.6 |
| 20260905205308 | 92 | 307 | 5.0 | 10.0 | 0.00 | 0.00 | 0.00 | 22 | 1020.6 |
| 20260905205214 | 92 | 306 | 5.0 | 10.0 | 0.00 | 0.00 | 0.00 | 23 | 1020.6 |
| 20260905205008 | 92 | 113 | 6.0 | 10.0 | 0.00 | 0.00 | 0.00 | 21 | 1020.7 |
| 20260905204902 | 92 | 73 | 6.0 | 10.0 | 0.00 | 0.00 | 0.00 | 21 | 1020.7 |
| 20260905204825 | 92 | 71 | 5.0 | 10.0 | 0.00 | 0.00 | 0.00 | 21 | 1020.7 |
| 20260905204801 | 92 | 46 | 5.0 | 10.0 | 0.00 | 0.00 | 0.00 | 21 | 1020.7 |
| 20260905204709 | 92 | 14 | 5.0 | 10.0 | 0.00 | 0.00 | 0.00 | 23 | 1020.7 |
| 20260905204501 | 92 | 15 | 5.0 | 10.0 | 0.00 | 0.00 | 0.00 | 21 | 1020.7 |
| 20260905204355 | 92 | 38 | 5.0 | 10.0 | 0.00 | 0.00 | 0.00 | 23 | 1020.7 |
| 20260905204320 | 92 | 341 | 4.0 | 10.0 | 0.00 | 0.00 | 0.00 | 23 | 1020.7 |
| 20260905204255 | 92 | 332 | 4.0 | 10.0 | 0.00 | 0.00 | 0.00 | 22 | 1020.7 |
| 20260905204156 | 92 | 30 | 4.0 | 10.0 | 0.00 | 0.00 | 0.00 | 23 | 1020.9 |
| 20260905204102 | 92 | 41 | 4.0 | 10.0 | 0.00 | 0.00 | 0.00 | 21 | 1020.7 |
| 20260905203853 | 92 | 324 | 4.0 | 10.0 | 0.00 | 0.00 | 0.00 | 21 | 1020.9 |
| 20260905203814 | 92 | 297 | 4.0 | 10.0 | 0.00 | 0.00 | 0.00 | 21 | 1020.9 |
| 20260905203752 | 92 | 292 | 4.0 | 10.0 | 0.00 | 0.00 | 0.00 | 21 | 1020.9 |
| 20260905203652 | 92 | 338 | 4.0 | 10.0 | 0.00 | 0.00 | 0.00 | 22 | 1021.0 |
| 20260905203551 | 92 | 342 | 4.0 | 10.0 | 0.00 | 0.00 | 0.00 | 22 | 1020.9 |
| 20260905203450 | 92 | 50 | 4.0 | 10.0 | 0.00 | 0.00 | 0.00 | 22 | 1020.9 |
| 20260905203403 | 91 | 36 | 4.0 | 10.0 | 0.00 | 0.00 | 0.00 | 23 | 1020.9 |
| 20260905203356 | 91 | 328 | 4.0 | 10.0 | 0.00 | 0.00 | 0.00 | 24 | 1021.0 |
| 20260905203043 | 91 | 31 | 5.0 | 11.0 | 0.00 | 0.00 | 0.00 | 25 | 1021.0 |
| 20260905202944 | 91 | 15 | 6.0 | 11.0 | 0.00 | 0.00 | 0.00 | 21 | 1021.0 |
| 20260905202840 | 91 | 72 | 6.0 | 12.0 | 0.00 | 0.00 | 0.00 | 21 | 1021.0 |
| 20260905202801 | 91 | 49 | 6.0 | 12.0 | 0.00 | 0.00 | 0.00 | 22 | 1021.1 |
| 20260905202740 | 91 | 51 | 6.0 | 12.0 | 0.00 | 0.00 | 0.00 | 22 | 1021.1 |
| 20260905202640 | 91 | 98 | 6.0 | 12.0 | 0.00 | 0.00 | 0.00 | 22 | 1021.1 |
| 20260905202546 | 90 | 57 | 6.0 | 12.0 | 0.00 | 0.00 | 0.00 | 24 | 1021.1 |
| 20260905202333 | 90 | 17 | 6.0 | 12.0 | 0.00 | 0.00 | 0.00 | 22 | 1021.2 |
| 20260905202256 | 90 | 30 | 6.0 | 12.0 | 0.00 | 0.00 | 0.00 | 23 | 1021.2 |
| 20260905202234 | 90 | 330 | 6.0 | 12.0 | 0.00 | 0.00 | 0.00 | 22 | 1021.1 |
| 20260905202141 | 90 | 0 | 6.0 | 12.0 | 0.00 | 0.00 | 0.00 | 22 | 1021.2 |
| 20260905201931 | 90 | 23 | 5.0 | 12.0 | 0.00 | 0.00 | 0.00 | 22 | 1021.1 |
| 20260905201827 | 90 | 39 | 5.0 | 11.0 | 0.00 | 0.00 | 0.00 | 23 | 1021.1 |
| 20260905201749 | 90 | 51 | 5.0 | 11.0 | 0.00 | 0.00 | 0.00 | 22 | 1021.1 |
| 20260905201726 | 90 | 67 | 5.0 | 11.0 | 0.00 | 0.00 | 0.00 | 22 | 1021.1 |
| 20260905201632 | 90 | 73 | 5.0 | 11.0 | 0.00 | 0.00 | 0.00 | 23 | 1021.1 |
| 20260905201426 | 90 | 62 | 5.0 | 10.0 | 0.00 | 0.00 | 0.00 | 25 | 1021.2 |
| 20260905201323 | 90 | 346 | 5.0 | 10.0 | 0.00 | 0.00 | 0.00 | 23 | 1021.1 |
| 20260905201243 | 90 | 126 | 6.0 | 10.0 | 0.00 | 0.00 | 0.00 | 22 | 1021.1 |
| 20260905201224 | 90 | 112 | 6.0 | 10.0 | 0.00 | 0.00 | 0.00 | 22 | 1021.2 |
| 20260905201122 | 90 | 111 | 6.0 | 10.0 | 0.00 | 0.00 | 0.00 | 22 | 1021.2 |
| 20260905201022 | 90 | 47 | 6.0 | 10.0 | 0.00 | 0.00 | 0.00 | 22 | 1021.2 |
| 20260905200920 | 90 | 57 | 6.0 | 10.0 | 0.00 | 0.00 | 0.00 | 21 | 1021.2 |
| 20260905200814 | 90 | 102 | 5.0 | 10.0 | 0.00 | 0.00 | 0.00 | 22 | 1021.2 |
| 20260905200737 | 90 | 101 | 5.0 | 10.0 | 0.00 | 0.00 | 0.00 | 22 | 1021.2 |
| 20260905200720 | 90 | 114 | 5.0 | 10.0 | 0.00 | 0.00 | 0.00 | 23 | 1021.2 |
| 20260905200514 | 90 | 53 | 5.0 | 10.0 | 0.00 | 0.00 | 0.00 | 24 | 1021.2 |
| 20260905200413 | 90 | 49 | 5.0 | 11.0 | 0.00 | 0.00 | 0.00 | 23 | 1021.2 |
| 20260905200320 | 90 | 86 | 5.0 | 11.0 | 0.00 | 0.00 | 0.00 | 23 | 1021.2 |
| 20260905200314 | 90 | 53 | 5.0 | 11.0 | 0.00 | 0.00 | 0.00 | 22 | 1021.3 |
| 20260905200110 | 91 | 44 | 5.0 | 11.0 | 0.00 | 0.00 | 0.00 | 22 | 1021.3 |
| 20260905200009 | 90 | 68 | 4.0 | 11.0 | 0.00 | 0.00 | 0.00 | 23 | 1021.3 |
| 20260905195909 | 90 | 138 | 5.0 | 11.0 | 0.00 | 0.00 | 0.00 | 23 | 1021.3 |
| 20260905195803 | 90 | 166 | 5.0 | 11.0 | 0.00 | 0.00 | 0.00 | 23 | 1021.3 |
| 20260905195726 | 90 | 105 | 5.0 | 11.0 | 0.00 | 0.00 | 0.00 | 23 | 1021.3 |
| 20260905195702 | 90 | 114 | 5.0 | 11.0 | 0.00 | 0.00 | 0.00 | 23 | 1021.3 |
| 20260905195602 | 90 | 157 | 5.0 | 11.0 | 0.00 | 0.00 | 0.00 | 23 | 1021.3 |
| 20260905195526 | 90 | 46 | 5.0 | 11.0 | 0.00 | 0.00 | 0.00 | 22 | 1021.5 |
| 20260905195519 | 90 | 67 | 4.0 | 10.0 | 0.00 | 0.00 | 0.00 | 22 | 1021.5 |
| 20260905195102 | 90 | 67 | 3.0 | 10.0 | 0.00 | 0.00 | 0.00 | 23 | 1021.5 |
| 20260905195002 | 90 | 25 | 3.0 | 10.0 | 0.00 | 0.00 | 0.00 | 23 | 1021.5 |
| 20260905194859 | 90 | 40 | 4.0 | 11.0 | 0.00 | 0.00 | 0.00 | 23 | 1021.5 |
| 20260905194800 | 89 | 34 | 4.0 | 11.0 | 0.00 | 0.00 | 0.00 | 24 | 1021.5 |
| 20260905194714 | 89 | 45 | 3.0 | 11.0 | 0.00 | 0.00 | 0.00 | 25 | 1021.5 |
| 20260905194658 | 89 | 49 | 3.0 | 11.0 | 0.00 | 0.00 | 0.00 | 25 | 1021.5 |
| 20260905194556 | 89 | 37 | 3.0 | 11.0 | 0.00 | 0.00 | 0.00 | 25 | 1021.3 |
| 20260905194456 | 89 | 109 | 3.0 | 11.0 | 0.00 | 0.00 | 0.00 | 24 | 1021.5 |
| 20260905194355 | 89 | 156 | 3.0 | 11.0 | 0.00 | 0.00 | 0.00 | 24 | 1021.5 |
| 20260905194254 | 89 | 156 | 4.0 | 11.0 | 0.00 | 0.00 | 0.00 | 26 | 1021.5 |
| 20260905194208 | 89 | 156 | 4.0 | 11.0 | 0.00 | 0.00 | 0.00 | 26 | 1021.6 |
| 20260905194154 | 89 | 157 | 4.0 | 11.0 | 0.00 | 0.00 | 0.00 | 26 | 1021.6 |
| 20260905194054 | 89 | 113 | 4.0 | 11.0 | 0.00 | 0.00 | 0.00 | 25 | 1021.6 |
| 20260905193954 | 89 | 58 | 4.0 | 12.0 | 0.00 | 0.00 | 0.00 | 23 | 1021.6 |
| 20260905193854 | 89 | 68 | 4.0 | 12.0 | 0.00 | 0.00 | 0.00 | 23 | 1021.6 |
| 20260905193752 | 89 | 169 | 5.0 | 12.0 | 0.00 | 0.00 | 0.00 | 23 | 1021.6 |
| 20260905193701 | 89 | 138 | 5.0 | 14.0 | 0.00 | 0.00 | 0.00 | 23 | 1021.6 |
| 20260905193649 | 89 | 135 | 5.0 | 14.0 | 0.00 | 0.00 | 0.00 | 23 | 1021.6 |
| 20260905193549 | 89 | 142 | 6.0 | 14.0 | 0.00 | 0.00 | 0.00 | 22 | 1021.7 |
| 20260905193450 | 89 | 56 | 6.0 | 14.0 | 0.00 | 0.00 | 0.00 | 23 | 1021.7 |
| 20260905193350 | 89 | 84 | 6.0 | 14.0 | 0.00 | 0.00 | 0.00 | 23 | 1021.7 |
| 20260905193249 | 89 | 74 | 6.0 | 14.0 | 0.00 | 0.00 | 0.00 | 23 | 1021.7 |
| 20260905193156 | 89 | 131 | 6.0 | 14.0 | 0.00 | 0.00 | 0.00 | 22 | 1021.7 |
| 20260905193148 | 89 | 105 | 6.0 | 14.0 | 0.00 | 0.00 | 0.00 | 22 | 1021.7 |
| 20260905193047 | 89 | 79 | 6.0 | 14.0 | 0.00 | 0.00 | 0.00 | 23 | 1021.7 |
| 20260905192948 | 89 | 79 | 6.0 | 14.0 | 0.00 | 0.00 | 0.00 | 24 | 1021.7 |
| 20260905192848 | 89 | 93 | 6.0 | 14.0 | 0.00 | 0.00 | 0.00 | 23 | 1021.6 |
| 20260905192747 | 89 | 92 | 6.0 | 14.0 | 0.00 | 0.00 | 0.00 | 24 | 1021.7 |
| 20260905192657 | 89 | 34 | 5.0 | 11.0 | 0.00 | 0.00 | 0.00 | 24 | 1021.6 |
| 20260905192652 | 89 | 49 | 5.0 | 11.0 | 0.00 | 0.00 | 0.00 | 24 | 1021.6 |
| 20260905192453 | 89 | 350 | 5.0 | 14.0 | 0.00 | 0.00 | 0.00 | 23 | 1021.6 |
| 20260905192244 | 89 | 26 | 6.0 | 14.0 | 0.00 | 0.00 | 0.00 | 25 | 1021.7 |
| 20260905192155 | 89 | 61 | 6.0 | 14.0 | 0.00 | 0.00 | 0.00 | 24 | 1021.7 |
| 20260905192151 | 90 | 76 | 6.0 | 14.0 | 0.00 | 0.00 | 0.00 | 24 | 1021.7 |
| 20260905191944 | 90 | 38 | 6.0 | 14.0 | 0.00 | 0.00 | 0.00 | 25 | 1021.8 |
| 20260905191843 | 90 | 49 | 6.0 | 14.0 | 0.00 | 0.00 | 0.00 | 23 | 1021.7 |
| 20260905191759 | 90 | 42 | 7.0 | 14.0 | 0.00 | 0.00 | 0.00 | 24 | 1021.7 |
| 20260905191644 | 90 | 69 | 8.0 | 14.0 | 0.00 | 0.00 | 0.00 | 24 | 1021.8 |
| 20260905191544 | 90 | 44 | 8.0 | 14.0 | 0.00 | 0.00 | 0.00 | 24 | 1021.8 |
| 20260905191444 | 90 | 58 | 9.0 | 15.0 | 0.00 | 0.00 | 0.00 | 23 | 1021.7 |
| 20260905191343 | 90 | 38 | 9.0 | 17.0 | 0.00 | 0.00 | 0.00 | 22 | 1021.8 |
| 20260905191244 | 90 | 58 | 9.0 | 17.0 | 0.00 | 0.00 | 0.00 | 22 | 1021.8 |
| 20260905191152 | 90 | 28 | 9.0 | 17.0 | 0.00 | 0.00 | 0.00 | 24 | 1021.8 |
| 20260905191143 | 90 | 30 | 9.0 | 17.0 | 0.00 | 0.00 | 0.00 | 24 | 1021.8 |
| 20260905191044 | 90 | 76 | 9.0 | 17.0 | 0.00 | 0.00 | 0.00 | 23 | 1021.8 |
| 20260905190944 | 90 | 92 | 9.0 | 17.0 | 0.00 | 0.00 | 0.00 | 23 | 1021.8 |
| 20260905190838 | 90 | 59 | 9.0 | 17.0 | 0.00 | 0.00 | 0.00 | 22 | 1021.8 |
| 20260905190737 | 90 | 88 | 8.0 | 17.0 | 0.00 | 0.00 | 0.00 | 22 | 1021.8 |
| 20260905190652 | 90 | 87 | 8.0 | 17.0 | 0.00 | 0.00 | 0.00 | 23 | 1021.8 |
| 20260905190637 | 90 | 85 | 8.0 | 17.0 | 0.00 | 0.00 | 0.00 | 23 | 1021.8 |
| 20260905190546 | 90 | 83 | 8.0 | 17.0 | 0.00 | 0.00 | 0.00 | 24 | 1021.8 |
| 20260905190344 | 89 | 101 | 6.0 | 12.0 | 0.00 | 0.00 | 0.00 | 25 | 1021.8 |
| 20260905190155 | 89 | 86 | 5.0 | 12.0 | 0.00 | 0.00 | 0.00 | 23 | 1021.8 |
| 20260905190145 | 89 | 87 | 5.0 | 12.0 | 0.00 | 0.00 | 0.00 | 23 | 1021.8 |
| 20260905185936 | 89 | 96 | 6.0 | 13.0 | 0.00 | 0.00 | 0.00 | 23 | 1021.8 |
| 20260905185834 | 89 | 48 | 6.0 | 14.0 | 0.00 | 0.00 | 0.00 | 24 | 1021.8 |
| 20260905185733 | 89 | 11 | 7.0 | 14.0 | 0.00 | 0.00 | 0.00 | 23 | 1021.8 |
| 20260905185654 | 90 | 57 | 7.0 | 14.0 | 0.00 | 0.00 | 0.00 | 22 | 1021.8 |
| 20260905185633 | 90 | 44 | 7.0 | 14.0 | 0.00 | 0.00 | 0.00 | 22 | 1021.8 |
| 20260905185533 | 90 | 77 | 7.0 | 15.0 | 0.00 | 0.00 | 0.00 | 23 | 1021.9 |
| 20260905185434 | 90 | 30 | 8.0 | 15.0 | 0.00 | 0.00 | 0.00 | 23 | 1021.9 |
| 20260905185334 | 90 | 67 | 8.0 | 15.0 | 0.00 | 0.00 | 0.00 | 23 | 1021.9 |
| 20260905185232 | 90 | 32 | 8.0 | 15.0 | 0.00 | 0.00 | 0.00 | 23 | 1021.9 |
| 20260905185154 | 89 | 65 | 8.0 | 15.0 | 0.00 | 0.00 | 0.00 | 23 | 1021.9 |
| 20260905185131 | 89 | 53 | 7.0 | 15.0 | 0.00 | 0.00 | 0.00 | 23 | 1021.9 |
| 20260905185038 | 89 | 72 | 6.0 | 15.0 | 0.00 | 0.00 | 0.00 | 22 | 1021.9 |
| 20260905184831 | 90 | 74 | 5.0 | 15.0 | 0.00 | 0.00 | 0.00 | 23 | 1021.8 |
| 20260905184732 | 90 | 63 | 5.0 | 15.0 | 0.00 | 0.00 | 0.00 | 22 | 1021.8 |
| 20260905184652 | 90 | 38 | 5.0 | 15.0 | 0.00 | 0.00 | 0.00 | 23 | 1021.8 |
| 20260905184629 | 90 | 46 | 5.0 | 15.0 | 0.00 | 0.00 | 0.00 | 23 | 1021.9 |
| 20260905184535 | 90 | 55 | 5.0 | 11.0 | 0.00 | 0.00 | 0.00 | 24 | 1021.8 |
| 20260905184328 | 90 | 36 | 5.0 | 12.0 | 0.00 | 0.00 | 0.00 | 24 | 1021.8 |
| 20260905184225 | 90 | 50 | 6.0 | 12.0 | 0.00 | 0.00 | 0.00 | 25 | 1021.8 |
| 20260905184150 | 90 | 64 | 6.0 | 12.0 | 0.00 | 0.00 | 0.00 | 23 | 1021.8 |
| 20260905184128 | 89 | 74 | 6.0 | 12.0 | 0.00 | 0.00 | 0.00 | 23 | 1021.8 |
| 20260905183922 | 89 | 80 | 7.0 | 12.0 | 0.00 | 0.00 | 0.00 | 23 | 1021.8 |
| 20260905183822 | 89 | 113 | 7.0 | 12.0 | 0.00 | 0.00 | 0.00 | 24 | 1021.8 |
| 20260905183719 | 89 | 173 | 6.0 | 12.0 | 0.00 | 0.00 | 0.00 | 24 | 1021.9 |
| 20260905183650 | 89 | 120 | 6.0 | 12.0 | 0.00 | 0.00 | 0.00 | 24 | 1021.9 |
| 20260905183625 | 89 | 156 | 6.0 | 12.0 | 0.00 | 0.00 | 0.00 | 24 | 1021.9 |
| 20260905183417 | 89 | 72 | 5.0 | 11.0 | 0.00 | 0.00 | 0.00 | 25 | 1021.9 |
| 20260905183318 | 89 | 29 | 5.0 | 11.0 | 0.00 | 0.00 | 0.00 | 24 | 1021.9 |
| 20260905183218 | 89 | 336 | 5.0 | 11.0 | 0.00 | 0.00 | 0.00 | 23 | 1022.0 |
| 20260905183150 | 89 | 36 | 5.0 | 11.0 | 0.00 | 0.00 | 0.00 | 23 | 1022.0 |
| 20260905183118 | 89 | 66 | 5.0 | 11.0 | 0.00 | 0.00 | 0.00 | 23 | 1022.0 |
| 20260905183018 | 89 | 25 | 5.0 | 11.0 | 0.00 | 0.00 | 0.00 | 24 | 1022.0 |
| 20260905182918 | 89 | 91 | 4.0 | 11.0 | 0.00 | 0.00 | 0.00 | 26 | 1022.0 |
| 20260905182818 | 89 | 62 | 4.0 | 11.0 | 0.00 | 0.00 | 0.00 | 26 | 1021.9 |
| 20260905182754 | 89 | 112 | 4.0 | 11.0 | 0.00 | 0.00 | 0.00 | 24 | 1022.0 |
| 20260905182616 | 89 | 65 | 4.0 | 11.0 | 0.00 | 0.00 | 0.00 | 26 | 1022.0 |
| 20260905182516 | 89 | 83 | 4.0 | 11.0 | 0.00 | 0.00 | 0.00 | 25 | 1022.0 |
| 20260905182430 | 89 | 73 | 4.0 | 11.0 | 0.00 | 0.00 | 0.00 | 25 | 1022.2 |
| 20260905182149 | 89 | 74 | 4.0 | 9.0 | 0.00 | 0.00 | 0.00 | 25 | 1022.2 |
| 20260905182115 | 89 | 115 | 3.0 | 9.0 | 0.00 | 0.00 | 0.00 | 25 | 1022.0 |
| 20260905182016 | 89 | 69 | 3.0 | 9.0 | 0.00 | 0.00 | 0.00 | 25 | 1022.0 |
| 20260905181911 | 88 | 92 | 3.0 | 9.0 | 0.00 | 0.00 | 0.00 | 26 | 1022.0 |
| 20260905181812 | 88 | 132 | 4.0 | 9.0 | 0.00 | 0.00 | 0.00 | 26 | 1022.0 |
| 20260905181754 | 88 | 130 | 4.0 | 9.0 | 0.00 | 0.00 | 0.00 | 26 | 1022.0 |
| 20260905181610 | 87 | 174 | 4.0 | 10.0 | 0.00 | 0.00 | 0.00 | 28 | 1022.0 |
| 20260905181507 | 87 | 185 | 4.0 | 10.0 | 0.00 | 0.00 | 0.00 | 28 | 1022.2 |
| 20260905181405 | 87 | 113 | 5.0 | 10.0 | 0.00 | 0.00 | 0.00 | 27 | 1022.0 |
| 20260905181306 | 87 | 92 | 5.0 | 10.0 | 0.00 | 0.00 | 0.00 | 27 | 1022.0 |
| 20260905181206 | 87 | 119 | 4.0 | 10.0 | 0.00 | 0.00 | 0.00 | 27 | 1022.2 |
| 20260905181144 | 87 | 98 | 4.0 | 10.0 | 0.00 | 0.00 | 0.00 | 28 | 1022.2 |
| 20260905181120 | 87 | 82 | 4.0 | 10.0 | 0.00 | 0.00 | 0.00 | 28 | 1022.0 |
| 20260905180806 | 87 | 118 | 5.0 | 10.0 | 0.00 | 0.00 | 0.00 | 29 | 1022.3 |
| 20260905180742 | 87 | 90 | 5.0 | 10.0 | 0.00 | 0.00 | 0.00 | 26 | 1022.2 |
| 20260905180606 | 87 | 109 | 5.0 | 10.0 | 0.00 | 0.00 | 0.00 | 27 | 1022.3 |
| 20260905180505 | 87 | 105 | 5.0 | 10.0 | 0.00 | 0.00 | 0.00 | 27 | 1022.2 |
| 20260905180405 | 87 | 151 | 5.0 | 10.0 | 0.00 | 0.00 | 0.00 | 26 | 1022.3 |
| 20260905180306 | 88 | 126 | 6.0 | 10.0 | 0.00 | 0.00 | 0.00 | 25 | 1022.3 |
| 20260905180205 | 88 | 96 | 6.0 | 10.0 | 0.00 | 0.00 | 0.00 | 25 | 1022.3 |
| 20260905180134 | 88 | 96 | 6.0 | 10.0 | 0.00 | 0.00 | 0.00 | 26 | 1022.2 |
| 20260905180105 | 88 | 94 | 6.0 | 10.0 | 0.00 | 0.00 | 0.00 | 26 | 1022.2 |
| 20260905180012 | 88 | 92 | 5.0 | 10.0 | 0.00 | 0.00 | 0.00 | 26 | 1022.3 |
| 20260905175805 | 88 | 111 | 6.0 | 11.0 | 0.00 | 0.00 | 0.00 | 27 | 1022.3 |
| 20260905175704 | 88 | 136 | 5.0 | 11.0 | 0.00 | 0.00 | 0.00 | 26 | 1022.3 |
| 20260905175635 | 88 | 158 | 5.0 | 11.0 | 0.00 | 0.00 | 0.00 | 26 | 1022.3 |
| 20260905175603 | 88 | 103 | 5.0 | 11.0 | 0.00 | 0.00 | 0.00 | 26 | 1022.3 |
| 20260905175510 | 88 | 121 | 6.0 | 11.0 | 0.00 | 0.00 | 0.00 | 28 | 1022.3 |
| 20260905175306 | 87 | 127 | 5.0 | 11.0 | 0.00 | 0.00 | 0.00 | 29 | 1022.3 |
| 20260905175201 | 87 | 175 | 6.0 | 11.0 | 0.00 | 0.00 | 0.00 | 29 | 1022.3 |
| 20260905175134 | 87 | 60 | 6.0 | 11.0 | 0.00 | 0.00 | 0.00 | 29 | 1022.4 |
| 20260905175101 | 87 | 133 | 6.0 | 11.0 | 0.00 | 0.00 | 0.00 | 29 | 1022.4 |
| 20260905175002 | 87 | 115 | 6.0 | 11.0 | 0.00 | 0.00 | 0.00 | 27 | 1022.4 |
| 20260905174902 | 87 | 120 | 6.0 | 11.0 | 0.00 | 0.00 | 0.00 | 28 | 1022.4 |
| 20260905174802 | 87 | 143 | 6.0 | 9.0 | 0.00 | 0.00 | 0.00 | 28 | 1022.4 |
| 20260905174717 | 87 | 76 | 6.0 | 9.0 | 0.00 | 0.00 | 0.00 | 28 | 1022.3 |
| 20260905174713 | 87 | 68 | 5.0 | 9.0 | 0.00 | 0.00 | 0.00 | 28 | 1022.4 |
| 20260905174400 | 86 | 113 | 5.0 | 10.0 | 0.00 | 0.00 | 0.00 | 30 | 1022.4 |
| 20260905174300 | 86 | 140 | 5.0 | 10.0 | 0.00 | 0.00 | 0.00 | 31 | 1022.4 |
| 20260905174200 | 86 | 114 | 5.0 | 10.0 | 0.00 | 0.00 | 0.00 | 29 | 1022.3 |
| 20260905174134 | 86 | 128 | 5.0 | 10.0 | 0.00 | 0.00 | 0.00 | 29 | 1022.4 |
| 20260905174059 | 86 | 123 | 5.0 | 10.0 | 0.00 | 0.00 | 0.00 | 30 | 1022.4 |
| 20260905173953 | 86 | 122 | 6.0 | 10.0 | 0.00 | 0.00 | 0.00 | 29 | 1022.3 |
| 20260905173853 | 86 | 134 | 6.0 | 10.0 | 0.00 | 0.00 | 0.00 | 28 | 1022.4 |
| 20260905173754 | 85 | 108 | 6.0 | 10.0 | 0.00 | 0.00 | 0.00 | 29 | 1022.5 |
| 20260905173654 | 85 | 113 | 5.0 | 10.0 | 0.00 | 0.00 | 0.00 | 30 | 1022.4 |
| 20260905173632 | 85 | 101 | 5.0 | 10.0 | 0.00 | 0.00 | 0.00 | 30 | 1022.4 |
| 20260905173554 | 85 | 136 | 5.0 | 10.0 | 0.00 | 0.00 | 0.00 | 30 | 1022.4 |
| 20260905173448 | 85 | 115 | 5.0 | 10.0 | 0.00 | 0.00 | 0.00 | 30 | 1022.4 |
| 20260905173347 | 85 | 92 | 6.0 | 10.0 | 0.00 | 0.00 | 0.00 | 29 | 1022.3 |
| 20260905173255 | 85 | 76 | 6.0 | 10.0 | 0.00 | 0.00 | 0.00 | 29 | 1022.4 |
| 20260905173132 | 85 | 109 | 5.0 | 10.0 | 0.00 | 0.00 | 0.00 | 29 | 1022.4 |
| 20260905173054 | 85 | 105 | 5.0 | 10.0 | 0.00 | 0.00 | 0.00 | 29 | 1022.4 |
| 20260905172847 | 85 | 121 | 5.0 | 10.0 | 0.00 | 0.00 | 0.00 | 30 | 1022.4 |
| 20260905172748 | 85 | 80 | 5.0 | 10.0 | 0.00 | 0.00 | 0.00 | 29 | 1022.4 |
| 20260905172647 | 85 | 132 | 5.0 | 10.0 | 0.00 | 0.00 | 0.00 | 31 | 1022.4 |
| 20260905172632 | 85 | 67 | 5.0 | 10.0 | 0.00 | 0.00 | 0.00 | 28 | 1022.4 |
| 20260905172547 | 85 | 66 | 5.0 | 10.0 | 0.00 | 0.00 | 0.00 | 28 | 1022.4 |
| 20260905172447 | 85 | 31 | 5.0 | 10.0 | 0.00 | 0.00 | 0.00 | 28 | 1022.4 |
| 20260905172347 | 85 | 63 | 4.0 | 10.0 | 0.00 | 0.00 | 0.00 | 28 | 1022.4 |
| 20260905172244 | 85 | 92 | 4.0 | 10.0 | 0.00 | 0.00 | 0.00 | 29 | 1022.4 |
| 20260905172143 | 85 | 153 | 5.0 | 11.0 | 0.00 | 0.00 | 0.00 | 28 | 1022.4 |
| 20260905172131 | 85 | 163 | 5.0 | 11.0 | 0.00 | 0.00 | 0.00 | 28 | 1022.4 |
| 20260905172050 | 85 | 161 | 5.0 | 11.0 | 0.00 | 0.00 | 0.00 | 28 | 1022.4 |
| 20260905171844 | 86 | 113 | 5.0 | 11.0 | 0.00 | 0.00 | 0.00 | 26 | 1022.4 |
| 20260905171741 | 86 | 88 | 6.0 | 11.0 | 0.00 | 0.00 | 0.00 | 28 | 1022.4 |
| 20260905171641 | 87 | 127 | 5.0 | 11.0 | 0.00 | 0.00 | 0.00 | 28 | 1022.4 |
| 20260905171631 | 87 | 90 | 5.0 | 11.0 | 0.00 | 0.00 | 0.00 | 28 | 1022.4 |
| 20260905171542 | 87 | 110 | 5.0 | 11.0 | 0.00 | 0.00 | 0.00 | 28 | 1022.4 |
| 20260905171441 | 87 | 148 | 5.0 | 11.0 | 0.00 | 0.00 | 0.00 | 30 | 1022.3 |
| 20260905171402 | 87 | 80 | 5.0 | 11.0 | 0.00 | 0.00 | 0.00 | 27 | 1022.4 |
| 20260905171145 | 87 | 105 | 5.0 | 10.0 | 0.00 | 0.00 | 0.00 | 29 | 1022.3 |
| 20260905170936 | 87 | 107 | 5.0 | 10.0 | 0.00 | 0.00 | 0.00 | 29 | 1022.3 |
| 20260905170836 | 87 | 82 | 5.0 | 10.0 | 0.00 | 0.00 | 0.00 | 28 | 1022.2 |
| 20260905170743 | 87 | 128 | 5.0 | 9.0 | 0.00 | 0.00 | 0.00 | 29 | 1022.0 |
| 20260905170632 | 87 | 82 | 5.0 | 9.0 | 0.00 | 0.00 | 0.00 | 30 | 1022.2 |
| 20260905170535 | 86 | 189 | 5.0 | 9.0 | 0.00 | 0.00 | 0.00 | 29 | 1022.2 |
| 20260905170442 | 86 | 117 | 5.0 | 9.0 | 0.00 | 0.00 | 0.00 | 28 | 1022.2 |
| 20260905170236 | 86 | 141 | 5.0 | 9.0 | 0.00 | 0.00 | 0.00 | 29 | 1022.2 |
| 20260905170128 | 86 | 105 | 5.0 | 9.0 | 0.00 | 0.00 | 0.00 | 30 | 1022.0 |
| 20260905170036 | 86 | 97 | 5.0 | 9.0 | 0.00 | 0.00 | 0.00 | 28 | 1022.2 |
| 20260905165936 | 86 | 133 | 5.0 | 9.0 | 0.00 | 0.00 | 0.00 | 29 | 1022.2 |
| 20260905165831 | 86 | 115 | 4.0 | 9.0 | 0.00 | 0.00 | 0.00 | 29 | 1022.2 |
| 20260905165750 | 86 | 144 | 4.0 | 9.0 | 0.00 | 0.00 | 0.00 | 32 | 1022.0 |
| 20260905165743 | 86 | 88 | 4.0 | 9.0 | 0.00 | 0.00 | 0.00 | 28 | 1022.0 |
| 20260905165431 | 85 | 115 | 4.0 | 9.0 | 0.00 | 0.00 | 0.00 | 29 | 1022.2 |
| 20260905165338 | 85 | 111 | 4.0 | 9.0 | 0.00 | 0.00 | 0.00 | 29 | 1022.2 |
| 20260905165132 | 85 | 90 | 4.0 | 9.0 | 0.00 | 0.00 | 0.00 | 30 | 1022.2 |
| 20260905165128 | 85 | 84 | 4.0 | 9.0 | 0.00 | 0.00 | 0.00 | 30 | 1022.2 |
| 20260905165045 | 85 | 113 | 4.0 | 9.0 | 0.00 | 0.00 | 0.00 | 32 | 1022.0 |
| 20260905164733 | 85 | 59 | 4.0 | 10.0 | 0.00 | 0.00 | 0.00 | 30 | 1022.0 |
| 20260905164631 | 85 | 88 | 4.0 | 10.0 | 0.00 | 0.00 | 0.00 | 30 | 1022.0 |
| 20260905164627 | 85 | 84 | 4.0 | 10.0 | 0.00 | 0.00 | 0.00 | 29 | 1022.0 |
| 20260905164532 | 85 | 117 | 4.0 | 10.0 | 0.00 | 0.00 | 0.00 | 29 | 1022.2 |
| 20260905164432 | 85 | 107 | 5.0 | 10.0 | 0.00 | 0.00 | 0.00 | 28 | 1022.0 |
| 20260905164332 | 85 | 76 | 5.0 | 10.0 | 0.00 | 0.00 | 0.00 | 29 | 1022.0 |
| 20260905164231 | 85 | 128 | 5.0 | 10.0 | 0.00 | 0.00 | 0.00 | 30 | 1022.0 |
| 20260905164127 | 85 | 76 | 5.0 | 11.0 | 0.00 | 0.00 | 0.00 | 29 | 1022.0 |
| 20260905164031 | 85 | 135 | 5.0 | 11.0 | 0.00 | 0.00 | 0.00 | 30 | 1022.0 |
| 20260905163935 | 85 | 107 | 5.0 | 11.0 | 0.00 | 0.00 | 0.00 | 28 | 1021.9 |
| 20260905163728 | 85 | 50 | 6.0 | 11.0 | 0.00 | 0.00 | 0.00 | 29 | 1021.9 |
| 20260905163628 | 85 | 56 | 6.0 | 11.0 | 0.00 | 0.00 | 0.00 | 29 | 1021.9 |
| 20260905163535 | 85 | 94 | 6.0 | 11.0 | 0.00 | 0.00 | 0.00 | 28 | 1021.9 |
| 20260905163327 | 85 | 105 | 6.0 | 11.0 | 0.00 | 0.00 | 0.00 | 29 | 1021.9 |
| 20260905163253 | 85 | 103 | 5.0 | 11.0 | 0.00 | 0.00 | 0.00 | 28 | 1021.9 |
| 20260905163141 | 85 | 92 | 5.0 | 10.0 | 0.00 | 0.00 | 0.00 | 29 | 1021.9 |
| 20260905162828 | 85 | 109 | 5.0 | 10.0 | 0.00 | 0.00 | 0.00 | 33 | 1021.9 |
| 20260905162728 | 85 | 80 | 4.0 | 10.0 | 0.00 | 0.00 | 0.00 | 30 | 1021.9 |
| 20260905162627 | 85 | 103 | 4.0 | 10.0 | 0.00 | 0.00 | 0.00 | 28 | 1021.9 |
| 20260905162527 | 85 | 124 | 4.0 | 10.0 | 0.00 | 0.00 | 0.00 | 29 | 1021.9 |
| 20260905162435 | 85 | 138 | 4.0 | 10.0 | 0.00 | 0.00 | 0.00 | 29 | 1021.9 |
| 20260905162227 | 85 | 94 | 4.0 | 8.0 | 0.00 | 0.00 | 0.00 | 31 | 1021.9 |
| 20260905162127 | 85 | 85 | 4.0 | 8.0 | 0.00 | 0.00 | 0.00 | 31 | 1021.9 |
| 20260905162024 | 85 | 131 | 4.0 | 8.0 | 0.00 | 0.00 | 0.00 | 30 | 1021.9 |
| 20260905161923 | 85 | 119 | 4.0 | 8.0 | 0.00 | 0.00 | 0.00 | 30 | 1021.9 |
| 20260905161823 | 85 | 175 | 4.0 | 8.0 | 0.00 | 0.00 | 0.00 | 31 | 1021.9 |
| 20260905161723 | 85 | 148 | 4.0 | 8.0 | 0.00 | 0.00 | 0.00 | 32 | 1021.9 |
| 20260905161623 | 85 | 139 | 4.0 | 8.0 | 0.00 | 0.00 | 0.00 | 31 | 1021.9 |
| 20260905161530 | 84 | 100 | 4.0 | 8.0 | 0.00 | 0.00 | 0.00 | 28 | 1021.8 |
| 20260905161324 | 84 | 90 | 3.0 | 8.0 | 0.00 | 0.00 | 0.00 | 29 | 1021.9 |
| 20260905161223 | 84 | 140 | 3.0 | 8.0 | 0.00 | 0.00 | 0.00 | 29 | 1021.8 |
| 20260905161130 | 84 | 147 | 3.0 | 8.0 | 0.00 | 0.00 | 0.00 | 30 | 1021.8 |
| 20260905160924 | 83 | 117 | 4.0 | 6.0 | 0.00 | 0.00 | 0.00 | 29 | 1021.9 |
| 20260905160823 | 83 | 126 | 4.0 | 8.0 | 0.00 | 0.00 | 0.00 | 29 | 1021.8 |
| 20260905160723 | 83 | 119 | 4.0 | 9.0 | 0.00 | 0.00 | 0.00 | 29 | 1021.8 |
| 20260905160624 | 83 | 105 | 4.0 | 9.0 | 0.00 | 0.00 | 0.00 | 29 | 1021.9 |
| 20260905160537 | 83 | 67 | 4.0 | 9.0 | 0.00 | 0.00 | 0.00 | 28 | 1021.8 |
| 20260905160231 | 82 | 104 | 3.0 | 9.0 | 0.00 | 0.00 | 0.00 | 32 | 1021.9 |
| 20260905160225 | 82 | 95 | 3.0 | 9.0 | 0.00 | 0.00 | 0.00 | 33 | 1021.9 |
| 20260905160020 | 82 | 91 | 3.0 | 9.0 | 0.00 | 0.00 | 0.00 | 36 | 1021.9 |
| 20260905155919 | 82 | 113 | 3.0 | 9.0 | 0.00 | 0.00 | 0.00 | 36 | 1021.9 |
| 20260905155820 | 82 | 97 | 3.0 | 9.0 | 0.00 | 0.00 | 0.00 | 33 | 1021.9 |
| 20260905155720 | 82 | 90 | 3.0 | 7.0 | 0.00 | 0.00 | 0.00 | 35 | 1021.9 |
| 20260905155624 | 81 | 94 | 3.0 | 7.0 | 0.00 | 0.00 | 0.00 | 33 | 1021.9 |
| 20260905155620 | 81 | 93 | 3.0 | 7.0 | 0.00 | 0.00 | 0.00 | 33 | 1021.9 |
| 20260905155519 | 81 | 107 | 3.0 | 7.0 | 0.00 | 0.00 | 0.00 | 35 | 1021.8 |
| 20260905155426 | 81 | 142 | 3.0 | 7.0 | 0.00 | 0.00 | 0.00 | 34 | 1021.8 |
| 20260905155220 | 81 | 112 | 3.0 | 7.0 | 0.00 | 0.00 | 0.00 | 34 | 1021.9 |
| 20260905155120 | 80 | 132 | 3.0 | 7.0 | 0.00 | 0.00 | 0.00 | 35 | 1021.9 |
| 20260905155020 | 80 | 94 | 3.0 | 7.0 | 0.00 | 0.00 | 0.00 | 33 | 1021.8 |
| 20260905154926 | 80 | 120 | 3.0 | 7.0 | 0.00 | 0.00 | 0.00 | 33 | 1021.8 |
| 20260905154720 | 80 | 158 | 3.0 | 6.0 | 0.00 | 0.00 | 0.00 | 36 | 1021.8 |
| 20260905154619 | 80 | 186 | 3.0 | 6.0 | 0.00 | 0.00 | 0.00 | 37 | 1021.8 |
| 20260905154519 | 80 | 191 | 3.0 | 6.0 | 0.00 | 0.00 | 0.00 | 38 | 1021.8 |
| 20260905154427 | 80 | 151 | 3.0 | 6.0 | 0.00 | 0.00 | 0.00 | 35 | 1021.8 |
| 20260905154230 | 79 | 169 | 3.0 | 6.0 | 0.00 | 0.00 | 0.00 | 35 | 1021.8 |
| 20260905154115 | 79 | 145 | 3.0 | 6.0 | 0.00 | 0.00 | 0.00 | 35 | 1021.8 |
| 20260905154016 | 79 | 157 | 3.0 | 6.0 | 0.00 | 0.00 | 0.00 | 34 | 1021.8 |
| 20260905153915 | 79 | 170 | 3.0 | 6.0 | 0.00 | 0.00 | 0.00 | 35 | 1021.8 |
| 20260905153816 | 79 | 150 | 3.0 | 6.0 | 0.00 | 0.00 | 0.00 | 34 | 1021.8 |
| 20260905153716 | 78 | 154 | 3.0 | 6.0 | 0.00 | 0.00 | 0.00 | 37 | 1021.8 |
| 20260905153616 | 78 | 147 | 3.0 | 6.0 | 0.00 | 0.00 | 0.00 | 36 | 1021.8 |
| 20260905153516 | 78 | 155 | 2.0 | 6.0 | 0.00 | 0.00 | 0.00 | 38 | 1021.8 |
| 20260905153416 | 78 | 132 | 2.0 | 6.0 | 0.00 | 0.00 | 0.00 | 40 | 1021.8 |
| 20260905153315 | 77 | 163 | 2.0 | 5.0 | 0.00 | 0.00 | 0.00 | 39 | 1021.8 |
| 20260905153215 | 77 | 136 | 2.0 | 5.0 | 0.00 | 0.00 | 0.00 | 37 | 1021.7 |
| 20260905153124 | 77 | 143 | 2.0 | 5.0 | 0.00 | 0.00 | 0.00 | 36 | 1021.7 |
| 20260905153115 | 77 | 159 | 2.0 | 5.0 | 0.00 | 0.00 | 0.00 | 37 | 1021.7 |
| 20260905153016 | 76 | 151 | 2.0 | 5.0 | 0.00 | 0.00 | 0.00 | 38 | 1021.7 |
| 20260905152922 | 76 | 151 | 2.0 | 5.0 | 0.00 | 0.00 | 0.00 | 38 | 1021.7 |
| 20260905152715 | 76 | 151 | 3.0 | 5.0 | 0.00 | 0.00 | 0.00 | 38 | 1021.7 |
| 20260905152624 | 76 | 151 | 2.0 | 5.0 | 0.00 | 0.00 | 0.00 | 39 | 1021.7 |
| 20260905152615 | 75 | 151 | 2.0 | 5.0 | 0.00 | 0.00 | 0.00 | 39 | 1021.7 |
| 20260905152516 | 75 | 151 | 2.0 | 5.0 | 0.00 | 0.00 | 0.00 | 39 | 1021.8 |
| 20260905152415 | 75 | 151 | 2.0 | 5.0 | 0.00 | 0.00 | 0.00 | 38 | 1021.7 |
| 20260905152312 | 75 | 151 | 2.0 | 5.0 | 0.00 | 0.00 | 0.00 | 40 | 1021.8 |
| 20260905152223 | 75 | 151 | 3.0 | 5.0 | 0.00 | 0.00 | 0.00 | 40 | 1021.7 |
| 20260905152216 | 75 | 151 | 3.0 | 5.0 | 0.00 | 0.00 | 0.00 | 39 | 1021.8 |
| 20260905152011 | 75 | 151 | 3.0 | 5.0 | 0.00 | 0.00 | 0.00 | 40 | 1021.8 |
| 20260905151911 | 75 | 169 | 3.0 | 5.0 | 0.00 | 0.00 | 0.00 | 40 | 1021.8 |
| 20260905151829 | 75 | 169 | 3.0 | 6.0 | 0.00 | 0.00 | 0.00 | 40 | 1021.8 |
| 20260905151822 | 75 | 169 | 3.0 | 6.0 | 0.00 | 0.00 | 0.00 | 40 | 1021.8 |
| 20260905151511 | 75 | 155 | 3.0 | 6.0 | 0.00 | 0.00 | 0.00 | 40 | 1021.7 |
| 20260905151409 | 75 | 136 | 4.0 | 6.0 | 0.00 | 0.00 | 0.00 | 39 | 1021.7 |
| 20260905151310 | 75 | 153 | 4.0 | 6.0 | 0.00 | 0.00 | 0.00 | 39 | 1021.7 |
| 20260905151209 | 75 | 153 | 4.0 | 6.0 | 0.00 | 0.00 | 0.00 | 39 | 1021.7 |
| 20260905151113 | 75 | 161 | 3.0 | 6.0 | 0.00 | 0.00 | 0.00 | 38 | 1021.7 |
| 20260905150906 | 75 | 146 | 3.0 | 6.0 | 0.00 | 0.00 | 0.00 | 37 | 1021.7 |
| 20260905150806 | 75 | 153 | 3.0 | 6.0 | 0.00 | 0.00 | 0.00 | 38 | 1021.8 |
| 20260905150702 | 75 | 144 | 3.0 | 6.0 | 0.00 | 0.00 | 0.00 | 38 | 1021.8 |
| 20260905150619 | 75 | 159 | 3.0 | 6.0 | 0.00 | 0.00 | 0.00 | 37 | 1021.8 |
| 20260905150557 | 75 | 150 | 3.0 | 7.0 | 0.00 | 0.00 | 0.00 | 37 | 1021.8 |
| 20260905150455 | 75 | 163 | 3.0 | 7.0 | 0.00 | 0.00 | 0.00 | 38 | 1021.8 |
| 20260905150356 | 75 | 157 | 3.0 | 7.0 | 0.00 | 0.00 | 0.00 | 38 | 1021.8 |
| 20260905150301 | 75 | 133 | 3.0 | 7.0 | 0.00 | 0.00 | 0.00 | 40 | 1021.8 |
| 20260905150120 | 74 | 138 | 3.0 | 7.0 | 0.00 | 0.00 | 0.00 | 38 | 1021.7 |
| 20260905150051 | 74 | 168 | 3.0 | 7.0 | 0.00 | 0.00 | 0.00 | 38 | 1021.7 |
| 20260905145947 | 74 | 149 | 3.0 | 7.0 | 0.00 | 0.00 | 0.00 | 39 | 1021.7 |
| 20260905145854 | 74 | 157 | 3.0 | 7.0 | 0.00 | 0.00 | 0.00 | 40 | 1021.7 |
| 20260905145617 | 74 | 142 | 3.0 | 7.0 | 0.00 | 0.00 | 0.00 | 39 | 1021.7 |
| 20260905145547 | 74 | 136 | 3.0 | 5.0 | 0.00 | 0.00 | 0.00 | 39 | 1021.7 |
| 20260905145451 | 74 | 165 | 2.0 | 5.0 | 0.00 | 0.00 | 0.00 | 39 | 1021.8 |
| 20260905145243 | 73 | 160 | 2.0 | 5.0 | 0.00 | 0.00 | 0.00 | 38 | 1021.7 |
| 20260905145140 | 73 | 157 | 2.0 | 5.0 | 0.00 | 0.00 | 0.00 | 40 | 1021.8 |
| 20260905145118 | 73 | 163 | 2.0 | 5.0 | 0.00 | 0.00 | 0.00 | 40 | 1021.8 |
| 20260905145036 | 73 | 165 | 2.0 | 5.0 | 0.00 | 0.00 | 0.00 | 40 | 1021.7 |
| 20260905144935 | 73 | 168 | 2.0 | 5.0 | 0.00 | 0.00 | 0.00 | 39 | 1021.8 |
| 20260905144833 | 72 | 157 | 2.0 | 5.0 | 0.00 | 0.00 | 0.00 | 42 | 1021.7 |
| 20260905144734 | 72 | 147 | 2.0 | 4.0 | 0.00 | 0.00 | 0.00 | 41 | 1021.8 |
| 20260905144642 | 72 | 147 | 2.0 | 5.0 | 0.00 | 0.00 | 0.00 | 41 | 1021.7 |
| 20260905144328 | 71 | 130 | 2.0 | 5.0 | 0.00 | 0.00 | 0.00 | 40 | 1021.7 |
| 20260905144228 | 71 | 130 | 2.0 | 5.0 | 0.00 | 0.00 | 0.00 | 41 | 1021.7 |
| 20260905144218 | 71 | 166 | 2.0 | 5.0 | 0.00 | 0.00 | 0.00 | 41 | 1021.7 |
| 20260905144019 | 71 | 141 | 2.0 | 5.0 | 0.00 | 0.00 | 0.00 | 41 | 1021.8 |
| 20260905143919 | 71 | 162 | 2.0 | 5.0 | 0.00 | 0.00 | 0.00 | 41 | 1021.8 |
| 20260905143820 | 71 | 175 | 2.0 | 5.0 | 0.00 | 0.00 | 0.00 | 41 | 1021.8 |
| 20260905143726 | 71 | 164 | 2.0 | 5.0 | 0.00 | 0.00 | 0.00 | 42 | 1021.8 |
| 20260905143612 | 70 | 143 | 2.0 | 5.0 | 0.00 | 0.00 | 0.00 | 42 | 1021.8 |
| 20260905143516 | 70 | 161 | 2.0 | 5.0 | 0.00 | 0.00 | 0.00 | 42 | 1021.8 |
| 20260905143413 | 70 | 161 | 2.0 | 5.0 | 0.00 | 0.00 | 0.00 | 41 | 1021.8 |
| 20260905143314 | 70 | 161 | 2.0 | 5.0 | 0.00 | 0.00 | 0.00 | 43 | 1021.8 |
| 20260905143211 | 69 | 158 | 2.0 | 5.0 | 0.00 | 0.00 | 0.00 | 43 | 1021.8 |
| 20260905143111 | 69 | 158 | 2.0 | 5.0 | 0.00 | 0.00 | 0.00 | 45 | 1021.8 |
| 20260905143007 | 69 | 175 | 2.0 | 5.0 | 0.00 | 0.00 | 0.00 | 45 | 1021.8 |
| 20260905142908 | 69 | 165 | 2.0 | 5.0 | 0.00 | 0.00 | 0.00 | 44 | 1021.8 |
| 20260905142807 | 68 | 152 | 2.0 | 5.0 | 0.00 | 0.00 | 0.00 | 45 | 1021.8 |
| 20260905142715 | 68 | 173 | 2.0 | 5.0 | 0.00 | 0.00 | 0.00 | 46 | 1021.8 |
| 20260905142604 | 68 | 173 | 2.0 | 5.0 | 0.00 | 0.00 | 0.00 | 46 | 1021.8 |
| 20260905142509 | 68 | 173 | 2.0 | 5.0 | 0.00 | 0.00 | 0.00 | 46 | 1021.8 |
| 20260905142305 | 67 | 180 | 3.0 | 5.0 | 0.00 | 0.00 | 0.00 | 46 | 1021.8 |
| 20260905142207 | 67 | 187 | 2.0 | 5.0 | 0.00 | 0.00 | 0.00 | 46 | 1021.8 |
| 20260905142200 | 67 | 173 | 2.0 | 5.0 | 0.00 | 0.00 | 0.00 | 47 | 1021.8 |
| 20260905141954 | 67 | 182 | 2.0 | 5.0 | 0.00 | 0.00 | 0.00 | 47 | 1021.8 |
| 20260905141854 | 67 | 184 | 2.0 | 5.0 | 0.00 | 0.00 | 0.00 | 48 | 1021.8 |
| 20260905141754 | 66 | 174 | 2.0 | 5.0 | 0.00 | 0.00 | 0.00 | 49 | 1021.8 |
| 20260905141651 | 66 | 174 | 1.0 | 5.0 | 0.00 | 0.00 | 0.00 | 50 | 1021.8 |
| 20260905141549 | 66 | 174 | 1.0 | 5.0 | 0.00 | 0.00 | 0.00 | 50 | 1021.8 |
| 20260905141446 | 66 | 174 | 1.0 | 5.0 | 0.00 | 0.00 | 0.00 | 49 | 1021.8 |
| 20260905141350 | 66 | 174 | 1.0 | 5.0 | 0.00 | 0.00 | 0.00 | 49 | 1021.8 |
| 20260905141143 | 66 | 174 | 1.0 | 3.0 | 0.00 | 0.00 | 0.00 | 49 | 1021.8 |
| 20260905141044 | 65 | 174 | 1.0 | 3.0 | 0.00 | 0.00 | 0.00 | 50 | 1021.8 |
| 20260905140939 | 65 | 174 | 1.0 | 3.0 | 0.00 | 0.00 | 0.00 | 50 | 1021.8 |
| 20260905140839 | 65 | 174 | 1.0 | 3.0 | 0.00 | 0.00 | 0.00 | 50 | 1021.8 |
| 20260905140740 | 65 | 174 | 1.0 | 3.0 | 0.00 | 0.00 | 0.00 | 51 | 1021.8 |
| 20260905140639 | 65 | 174 | 1.0 | 3.0 | 0.00 | 0.00 | 0.00 | 50 | 1021.8 |
| 20260905140536 | 65 | 174 | 1.0 | 3.0 | 0.00 | 0.00 | 0.00 | 50 | 1021.8 |
| 20260905140438 | 65 | 174 | 1.0 | 3.0 | 0.00 | 0.00 | 0.00 | 50 | 1021.8 |
| 20260905140335 | 65 | 174 | 1.0 | 3.0 | 0.00 | 0.00 | 0.00 | 50 | 1021.8 |
| 20260905140236 | 65 | 174 | 1.0 | 3.0 | 0.00 | 0.00 | 0.00 | 50 | 1021.8 |
| 20260905140134 | 65 | 174 | 1.0 | 3.0 | 0.00 | 0.00 | 0.00 | 51 | 1021.7 |
| 20260905140030 | 65 | 174 | 1.0 | 3.0 | 0.00 | 0.00 | 0.00 | 51 | 1021.7 |
| 20260905135926 | 65 | 242 | 0.0 | 3.0 | 0.00 | 0.00 | 0.00 | 51 | 1021.7 |
| 20260905135826 | 65 | 242 | 0.0 | 3.0 | 0.00 | 0.00 | 0.00 | 51 | 1021.7 |
| 20260905135733 | 65 | 242 | 0.0 | 2.0 | 0.00 | 0.00 | 0.00 | 51 | 1021.7 |
| 20260905135532 | 64 | 242 | 0.0 | 1.0 | 0.00 | 0.00 | 0.00 | 51 | 1021.6 |
| 20260905135330 | 64 | 242 | 0.0 | 1.0 | 0.00 | 0.00 | 0.00 | 51 | 1021.7 |
| 20260905135121 | 64 | 242 | 1.0 | 3.0 | 0.00 | 0.00 | 0.00 | 51 | 1021.7 |
| 20260905135054 | 64 | 242 | 1.0 | 3.0 | 0.00 | 0.00 | 0.00 | 51 | 1021.7 |
| 20260905135019 | 64 | 242 | 1.0 | 3.0 | 0.00 | 0.00 | 0.00 | 51 | 1021.7 |
| 20260905134915 | 64 | 242 | 1.0 | 3.0 | 0.00 | 0.00 | 0.00 | 51 | 1021.7 |
| 20260905134813 | 64 | 242 | 1.0 | 3.0 | 0.00 | 0.00 | 0.00 | 51 | 1021.6 |
| 20260905134714 | 64 | 242 | 1.0 | 3.0 | 0.00 | 0.00 | 0.00 | 51 | 1021.7 |
| 20260905134613 | 64 | 242 | 1.0 | 3.0 | 0.00 | 0.00 | 0.00 | 51 | 1021.7 |
| 20260905134556 | 64 | 242 | 1.0 | 3.0 | 0.00 | 0.00 | 0.00 | 51 | 1021.7 |
| 20260905134513 | 64 | 242 | 1.0 | 3.0 | 0.00 | 0.00 | 0.00 | 51 | 1021.7 |
| 20260905134407 | 64 | 242 | 1.0 | 3.0 | 0.00 | 0.00 | 0.00 | 51 | 1021.7 |
| 20260905134308 | 64 | 242 | 1.0 | 3.0 | 0.00 | 0.00 | 0.00 | 51 | 1021.7 |
| 20260905134207 | 64 | 242 | 1.0 | 3.0 | 0.00 | 0.00 | 0.00 | 51 | 1021.8 |
| 20260905134107 | 64 | 242 | 1.0 | 3.0 | 0.00 | 0.00 | 0.00 | 51 | 1021.7 |
| 20260905134053 | 64 | 242 | 1.0 | 3.0 | 0.00 | 0.00 | 0.00 | 51 | 1021.7 |
| 20260905134014 | 64 | 242 | 1.0 | 3.0 | 0.00 | 0.00 | 0.00 | 51 | 1021.7 |
| 20260905133700 | 0 | 242 | 1.0 | 3.0 | 0.00 | 0.00 | 0.00 | 1021.7 | |
| 20260905133550 | 0 | 242 | 1.0 | 3.0 | 0.00 | 0.00 | 0.00 | 1021.8 | |
| 20260905133457 | 0 | 242 | 1.0 | 3.0 | 0.00 | 0.00 | 0.00 | 1021.8 | |
| 20260905133356 | 0 | 242 | 1.0 | 3.0 | 0.00 | 0.00 | 0.00 | 1021.8 | |
| 20260905133253 | 0 | 242 | 1.0 | 3.0 | 0.00 | 0.00 | 0.00 | 1021.7 | |
| 20260905133153 | 0 | 242 | 1.0 | 3.0 | 0.00 | 0.00 | 0.00 | 1021.7 | |
| 20260905133049 | 0 | 242 | 1.0 | 3.0 | 0.00 | 0.00 | 0.00 | 1021.8 | |
| 20260905132951 | 0 | 242 | 1.0 | 3.0 | 0.00 | 0.00 | 0.00 | 1021.7 | |
| 20260905132848 | 0 | 242 | 1.0 | 3.0 | 0.00 | 0.00 | 0.00 | 1021.7 | |
| 20260905132748 | 0 | 242 | 1.0 | 3.0 | 0.00 | 0.00 | 0.00 | 1021.7 | |
| 20260905132647 | 0 | 242 | 1.0 | 3.0 | 0.00 | 0.00 | 0.00 | 1021.8 | |
| 20260905132543 | 0 | 242 | 1.0 | 3.0 | 0.00 | 0.00 | 0.00 | 1021.8 | |
| 20260905132450 | 0 | 242 | 1.0 | 3.0 | 0.00 | 0.00 | 0.00 | 1021.8 | |
| 20260905132244 | 0 | 242 | 1.0 | 3.0 | 0.00 | 0.00 | 0.00 | 1021.8 | |
| 20260905132142 | 0 | 242 | 1.0 | 3.0 | 0.00 | 0.00 | 0.00 | 1021.8 | |
| 20260905132039 | 0 | 242 | 1.0 | 3.0 | 0.00 | 0.00 | 0.00 | 1021.8 | |
| 20260905131939 | 0 | 242 | 1.0 | 3.0 | 0.00 | 0.00 | 0.00 | 1021.8 | |
| 20260905131839 | 0 | 242 | 2.0 | 3.0 | 0.00 | 0.00 | 0.00 | 1021.8 | |
| 20260905131740 | 0 | 242 | 2.0 | 3.0 | 0.00 | 0.00 | 0.00 | 1021.7 | |
| 20260905131638 | 0 | 242 | 2.0 | 3.0 | 0.00 | 0.00 | 0.00 | 1021.6 | |
| 20260905131544 | 0 | 242 | 2.0 | 4.0 | 0.00 | 0.00 | 0.00 | 1021.6 | |
| 20260905131537 | 0 | 242 | 2.0 | 4.0 | 0.00 | 0.00 | 0.00 | 1021.7 | |
| 20260905131436 | 0 | 242 | 2.0 | 4.0 | 0.00 | 0.00 | 0.00 | 1021.6 | |
| 20260905131336 | 0 | 242 | 2.0 | 4.0 | 0.00 | 0.00 | 0.00 | 1021.7 | |
| 20260905131233 | 0 | 242 | 2.0 | 4.0 | 0.00 | 0.00 | 0.00 | 1021.7 | |
| 20260905131132 | 0 | 242 | 2.0 | 4.0 | 0.00 | 0.00 | 0.00 | 1021.7 | |
| 20260905131046 | 0 | 242 | 2.0 | 4.0 | 0.00 | 0.00 | 0.00 | 1021.7 | |
| 20260905131032 | 0 | 228 | 2.0 | 4.0 | 0.00 | 0.00 | 0.00 | 1021.7 | |
| 20260905130931 | 0 | 228 | 2.0 | 4.0 | 0.00 | 0.00 | 0.00 | 1021.7 | |
| 20260905130829 | 0 | 228 | 2.0 | 4.0 | 0.00 | 0.00 | 0.00 | 1021.6 | |
| 20260905130726 | 0 | 228 | 2.0 | 4.0 | 0.00 | 0.00 | 0.00 | 1021.6 | |
| 20260905130623 | 0 | 224 | 2.0 | 4.0 | 0.00 | 0.00 | 0.00 | 1021.7 | |
| 20260905130541 | 0 | 233 | 2.0 | 4.0 | 0.00 | 0.00 | 0.00 | 1021.7 | |
| 20260905130523 | 0 | 221 | 2.0 | 4.0 | 0.00 | 0.00 | 0.00 | 1021.6 | |
| 20260905130423 | 0 | 215 | 2.0 | 4.0 | 0.00 | 0.00 | 0.00 | 1021.7 | |
| 20260905130322 | 0 | 224 | 2.0 | 4.0 | 0.00 | 0.00 | 0.00 | 1021.7 | |
| 20260905130217 | 0 | 251 | 2.0 | 4.0 | 0.00 | 0.00 | 0.00 | 1021.7 | |
| 20260905130117 | 0 | 215 | 1.0 | 4.0 | 0.00 | 0.00 | 0.00 | 1021.6 | |
| 20260905130041 | 0 | 222 | 1.0 | 4.0 | 0.00 | 0.00 | 0.00 | 1021.6 | |
| 20260905130018 | 0 | 220 | 1.0 | 4.0 | 0.00 | 0.00 | 0.00 | 1021.6 | |
| 20260905125915 | 0 | 232 | 1.0 | 4.0 | 0.00 | 0.00 | 0.00 | 1021.6 | |
| 20260905125815 | 0 | 232 | 1.0 | 4.0 | 0.00 | 0.00 | 0.00 | 1021.6 | |
| 20260905125715 | 0 | 232 | 2.0 | 4.0 | 0.00 | 0.00 | 0.00 | 1021.6 | |
| 20260905125613 | 0 | 232 | 2.0 | 5.0 | 0.00 | 0.00 | 0.00 | 1021.6 | |
| 20260905125541 | 0 | 232 | 2.0 | 5.0 | 0.00 | 0.00 | 0.00 | 1021.6 | |
| 20260905125513 | 0 | 232 | 2.0 | 5.0 | 0.00 | 0.00 | 0.00 | 1021.5 | |
| 20260905125411 | 0 | 233 | 2.0 | 5.0 | 0.00 | 0.00 | 0.00 | 1021.5 | |
| 20260905125309 | 0 | 215 | 2.0 | 5.0 | 0.00 | 0.00 | 0.00 | 1021.5 | |
| 20260905125209 | 0 | 221 | 2.0 | 5.0 | 0.00 | 0.00 | 0.00 | 1021.3 | |
| 20260905125109 | 0 | 215 | 2.0 | 5.0 | 0.00 | 0.00 | 0.00 | 1021.3 | |
| 20260905125041 | 0 | 215 | 2.0 | 5.0 | 0.00 | 0.00 | 0.00 | 1021.3 | |
| 20260905125016 | 0 | 215 | 2.0 | 5.0 | 0.00 | 0.00 | 0.00 | 1021.2 | |
| 20260905124808 | 0 | 215 | 3.0 | 5.0 | 0.00 | 0.00 | 0.00 | 1021.2 | |
| 20260905124705 | 0 | 232 | 3.0 | 5.0 | 0.00 | 0.00 | 0.00 | 1021.2 | |
| 20260905124600 | 0 | 232 | 3.0 | 5.0 | 0.00 | 0.00 | 0.00 | 1021.2 | |
| 20260905124538 | 0 | 230 | 3.0 | 5.0 | 0.00 | 0.00 | 0.00 | 1021.3 | |
| 20260905124458 | 0 | 219 | 2.0 | 4.0 | 0.00 | 0.00 | 0.00 | 1021.3 | |
| 20260905124401 | 0 | 244 | 2.0 | 4.0 | 0.00 | 0.00 | 0.00 | 1021.2 | |
| 20260905124200 | 0 | 252 | 2.0 | 4.0 | 0.00 | 0.00 | 0.00 | 1021.2 | |
| 20260905124037 | 0 | 247 | 2.0 | 4.0 | 0.00 | 0.00 | 0.00 | 1021.2 | |
| 20260905123952 | 0 | 247 | 2.0 | 4.0 | 0.00 | 0.00 | 0.00 | 1021.2 | |
| 20260905123904 | 0 | 247 | 3.0 | 4.0 | 0.00 | 0.00 | 0.00 | 1021.2 | |
| 20260905123537 | 0 | 251 | 1.0 | 4.0 | 0.00 | 0.00 | 0.00 | 1021.1 | |
| 20260905123446 | 0 | 251 | 1.0 | 4.0 | 0.00 | 0.00 | 0.00 | 1021.1 | |
| 20260905123340 | 0 | 251 | 1.0 | 4.0 | 0.00 | 0.00 | 0.00 | 1021.1 | |
| 20260905123239 | 0 | 251 | 1.0 | 4.0 | 0.00 | 0.00 | 0.00 | 1021.1 | |
| 20260905123151 | 0 | 251 | 1.0 | 3.0 | 0.00 | 0.00 | 0.00 | 1021.1 | |
| 20260905123144 | 0 | 28 | 1.0 | 3.0 | 0.00 | 0.00 | 0.00 | 1021.0 | |
| 20260905122846 | 0 | 28 | 1.0 | 3.0 | 0.00 | 0.00 | 0.00 | 1021.0 | |
| 20260905122744 | 0 | 28 | 1.0 | 3.0 | 0.00 | 0.00 | 0.00 | 1021.1 | |
| 20260905122643 | 0 | 28 | 1.0 | 3.0 | 0.00 | 0.00 | 0.00 | 1021.1 | |
| 20260905122552 | 0 | 28 | 1.0 | 3.0 | 0.00 | 0.00 | 0.00 | 1021.1 | |
| 20260905122440 | 0 | 28 | 1.0 | 3.0 | 0.00 | 0.00 | 0.00 | 1021.1 | |
| 20260905122340 | 0 | 28 | 0.0 | 3.0 | 0.00 | 0.00 | 0.00 | 1021.1 | |
| 20260905122237 | 0 | 28 | 0.0 | 2.0 | 0.00 | 0.00 | 0.00 | 1021.1 | |
| 20260905122133 | 0 | 28 | 0.0 | 2.0 | 0.00 | 0.00 | 0.00 | 1021.0 | |
| 20260905121939 | 0 | 28 | 0.0 | 2.0 | 0.00 | 0.00 | 0.00 | 1021.1 | |
| 20260905121849 | 0 | 28 | 0.0 | 2.0 | 0.00 | 0.00 | 0.00 | 1021.1 | |
| 20260905121754 | 0 | 28 | 0.0 | 2.0 | 0.00 | 0.00 | 0.00 | 1021.1 | |
| 20260905121548 | 0 | 28 | 0.0 | 1.0 | 0.00 | 0.00 | 0.00 | 1021.1 | |
| 20260905121437 | 0 | 28 | 0.0 | 1.0 | 0.00 | 0.00 | 0.00 | 1021.1 | |
| 20260905121343 | 0 | 28 | 0.0 | 1.0 | 0.00 | 0.00 | 0.00 | 1021.0 | |
| 20260905121240 | 0 | 28 | 0.0 | 2.0 | 0.00 | 0.00 | 0.00 | 1021.1 | |
| 20260905121146 | 0 | 28 | 0.0 | 2.0 | 0.00 | 0.00 | 0.00 | 1021.1 | |
| 20260905120940 | 0 | 28 | 1.0 | 2.0 | 0.00 | 0.00 | 0.00 | 1021.0 | |
| 20260905120840 | 0 | 28 | 1.0 | 2.0 | 0.00 | 0.00 | 0.00 | 1021.0 | |
| 20260905120739 | 0 | 28 | 1.0 | 2.0 | 0.00 | 0.00 | 0.00 | 1021.0 | |
| 20260905120640 | 0 | 28 | 1.0 | 2.0 | 0.00 | 0.00 | 0.00 | 1021.0 | |
| 20260905120540 | 0 | 28 | 1.0 | 2.0 | 0.00 | 0.00 | 0.00 | 1021.0 | |
| 20260905120439 | 0 | 28 | 1.0 | 2.0 | 0.00 | 0.00 | 0.00 | 1021.0 | |
| 20260905120347 | 0 | 28 | 1.0 | 2.0 | 0.00 | 0.00 | 0.00 | 1021.0 | |
| 20260905120139 | 0 | 28 | 1.0 | 2.0 | 0.00 | 0.00 | 0.00 | 1021.0 | |
| 20260905120040 | 0 | 28 | 1.0 | 2.0 | 0.00 | 0.00 | 0.00 | 1021.0 | |
| 20260905115938 | 0 | 28 | 1.0 | 2.0 | 0.00 | 0.00 | 0.00 | 1020.9 | |
| 20260905115846 | 0 | 28 | 1.0 | 2.0 | 0.00 | 0.00 | 0.00 | 1020.9 | |
| 20260905115638 | 0 | 28 | 1.0 | 2.0 | 0.00 | 0.00 | 0.00 | 1020.9 | |
| 20260905115538 | 0 | 28 | 1.0 | 2.0 | 0.00 | 0.00 | 0.00 | 1020.9 | |
| 20260905115433 | 0 | 28 | 1.0 | 2.0 | 0.00 | 0.00 | 0.00 | 1020.9 | |
| 20260905115338 | 0 | 28 | 1.0 | 2.0 | 0.00 | 0.00 | 0.00 | 1021.0 | |
| 20260905115237 | 0 | 28 | 1.0 | 2.0 | 0.00 | 0.00 | 0.00 | 1021.0 | |
| 20260905115137 | 0 | 28 | 0.0 | 2.0 | 0.00 | 0.00 | 0.00 | 1020.9 | |
| 20260905115033 | 0 | 28 | 0.0 | 2.0 | 0.00 | 0.00 | 0.00 | 1020.9 | |
| 20260905114931 | 0 | 28 | 0.0 | 2.0 | 0.00 | 0.00 | 0.00 | 1021.0 | |
| 20260905114832 | 0 | 28 | 0.0 | 2.0 | 0.00 | 0.00 | 0.00 | 1020.9 | |
| 20260905114731 | 0 | 28 | 0.0 | 3.0 | 0.00 | 0.00 | 0.00 | 1020.9 | |
| 20260905114632 | 0 | 28 | 0.0 | 3.0 | 0.00 | 0.00 | 0.00 | 1021.0 | |
| 20260905114540 | 0 | 28 | 1.0 | 3.0 | 0.00 | 0.00 | 0.00 | 1020.9 | |
| 20260905114430 | 0 | 28 | 1.0 | 3.0 | 0.00 | 0.00 | 0.00 | 1021.0 | |
| 20260905114329 | 0 | 28 | 1.0 | 3.0 | 0.00 | 0.00 | 0.00 | 1020.9 | |
| 20260905114228 | 0 | 28 | 1.0 | 3.0 | 0.00 | 0.00 | 0.00 | 1021.0 | |
| 20260905114125 | 0 | 28 | 1.0 | 3.0 | 0.00 | 0.00 | 0.00 | 1021.0 | |
| 20260905114026 | 0 | 28 | 1.0 | 3.0 | 0.00 | 0.00 | 0.00 | 1020.9 | |
| 20260905113923 | 0 | 28 | 1.0 | 3.0 | 0.00 | 0.00 | 0.00 | 1020.9 | |
| 20260905113823 | 0 | 28 | 1.0 | 3.0 | 0.00 | 0.00 | 0.00 | 1020.9 | |
| 20260905113723 | 0 | 28 | 1.0 | 3.0 | 0.00 | 0.00 | 0.00 | 1020.9 | |
| 20260905113617 | 0 | 28 | 2.0 | 3.0 | 0.00 | 0.00 | 0.00 | 1020.9 | |
| 20260905113518 | 0 | 28 | 2.0 | 3.0 | 0.00 | 0.00 | 0.00 | 1020.7 | |
| 20260905113417 | 0 | 28 | 1.0 | 3.0 | 0.00 | 0.00 | 0.00 | 1020.7 | |
| 20260905113317 | 0 | 28 | 1.0 | 3.0 | 0.00 | 0.00 | 0.00 | 1020.9 | |
| 20260905113217 | 0 | 28 | 1.0 | 3.0 | 0.00 | 0.00 | 0.00 | 1020.9 | |
| 20260905113116 | 0 | 28 | 1.0 | 3.0 | 0.00 | 0.00 | 0.00 | 1020.9 | |
| 20260905113015 | 0 | 28 | 1.0 | 3.0 | 0.00 | 0.00 | 0.00 | 1020.9 | |
| 20260905112913 | 0 | 28 | 1.0 | 3.0 | 0.00 | 0.00 | 0.00 | 1020.9 | |
| 20260905112813 | 0 | 28 | 1.0 | 4.0 | 0.00 | 0.00 | 0.00 | 1020.9 | |
| 20260905112714 | 0 | 28 | 1.0 | 4.0 | 0.00 | 0.00 | 0.00 | 1020.9 | |
| 20260905112611 | 0 | 28 | 1.0 | 4.0 | 0.00 | 0.00 | 0.00 | 1020.9 | |
| 20260905112509 | 0 | 28 | 1.0 | 4.0 | 0.00 | 0.00 | 0.00 | 1021.0 | |
| 20260905112409 | 0 | 28 | 1.0 | 4.0 | 0.00 | 0.00 | 0.00 | 1021.0 | |
| 20260905112310 | 0 | 28 | 2.0 | 4.0 | 0.00 | 0.00 | 0.00 | 1021.0 | |
| 20260905112208 | 0 | 28 | 2.0 | 4.0 | 0.00 | 0.00 | 0.00 | 1021.0 | |
| 20260905112105 | 0 | 28 | 2.0 | 4.0 | 0.00 | 0.00 | 0.00 | 1021.0 | |
| 20260905112002 | 0 | 28 | 2.0 | 4.0 | 0.00 | 0.00 | 0.00 | 1020.9 | |
| 20260905111920 | 0 | 28 | 3.0 | 4.0 | 0.00 | 0.00 | 0.00 | 1020.9 | |
| 20260905111859 | 0 | 28 | 3.0 | 4.0 | 0.00 | 0.00 | 0.00 | 1020.9 | |
| 20260905111800 | 0 | 28 | 2.0 | 4.0 | 0.00 | 0.00 | 0.00 | 1020.9 | |
| 20260905111700 | 0 | 28 | 2.0 | 4.0 | 0.00 | 0.00 | 0.00 | 1021.0 | |
| 20260905111559 | 0 | 5 | 3.0 | 4.0 | 0.00 | 0.00 | 0.00 | 1020.7 | |
| 20260905111505 | 0 | 0 | 3.0 | 4.0 | 0.00 | 0.00 | 0.00 | 1020.9 | |
| 20260905111458 | 0 | 12 | 3.0 | 4.0 | 0.00 | 0.00 | 0.00 | 1020.9 | |
| 20260905111254 | 0 | 25 | 3.0 | 4.0 | 0.00 | 0.00 | 0.00 | 1020.9 | |
| 20260905111153 | 0 | 13 | 3.0 | 4.0 | 0.00 | 0.00 | 0.00 | 1020.9 | |
| 20260905111052 | 0 | 13 | 3.0 | 5.0 | 0.00 | 0.00 | 0.00 | 1020.9 | |
| 20260905110952 | 0 | 13 | 3.0 | 5.0 | 0.00 | 0.00 | 0.00 | 1020.7 | |
| 20260905110912 | 0 | 13 | 3.0 | 5.0 | 0.00 | 0.00 | 0.00 | 1020.7 | |
| 20260905110852 | 0 | 13 | 3.0 | 5.0 | 0.00 | 0.00 | 0.00 | 1020.7 | |
| 20260905110752 | 0 | 13 | 3.0 | 5.0 | 0.00 | 0.00 | 0.00 | 1020.7 | |
| 20260905110651 | 0 | 13 | 3.0 | 5.0 | 0.00 | 0.00 | 0.00 | 1020.9 | |
| 20260905110551 | 0 | 13 | 3.0 | 5.0 | 0.00 | 0.00 | 0.00 | 1020.7 | |
| 20260905110448 | 0 | 13 | 3.0 | 5.0 | 0.00 | 0.00 | 0.00 | 1020.9 | |
| 20260905110409 | 0 | 13 | 3.0 | 5.0 | 0.00 | 0.00 | 0.00 | 1020.7 | |
| 20260905110348 | 0 | 13 | 3.0 | 5.0 | 0.00 | 0.00 | 0.00 | 1020.7 | |
| 20260905110248 | 0 | 13 | 3.0 | 5.0 | 0.00 | 0.00 | 0.00 | 1020.9 | |
| 20260905110154 | 0 | 11 | 3.0 | 5.0 | 0.00 | 0.00 | 0.00 | 1020.9 | |
| 20260905105942 | 0 | 12 | 3.0 | 5.0 | 0.00 | 0.00 | 0.00 | 1020.9 | |
| 20260905105903 | 0 | 5 | 3.0 | 6.0 | 0.00 | 0.00 | 0.00 | 1020.9 | |
| 20260905105842 | 0 | 30 | 3.0 | 6.0 | 0.00 | 0.00 | 0.00 | 1020.9 | |
| 20260905105741 | 0 | 19 | 3.0 | 6.0 | 0.00 | 0.00 | 0.00 | 1020.9 | |
| 20260905105643 | 0 | 37 | 3.0 | 6.0 | 0.00 | 0.00 | 0.00 | 1020.9 | |
| 20260905105541 | 0 | 34 | 3.0 | 6.0 | 0.00 | 0.00 | 0.00 | 1020.9 | |
| 20260905105436 | 0 | 39 | 3.0 | 6.0 | 0.00 | 0.00 | 0.00 | 1020.7 | |
| 20260905105336 | 0 | 45 | 3.0 | 6.0 | 0.00 | 0.00 | 0.00 | 1020.7 | |
| 20260905105236 | 0 | 48 | 3.0 | 6.0 | 0.00 | 0.00 | 0.00 | 1020.7 | |
| 20260905105135 | 0 | 32 | 3.0 | 6.0 | 0.00 | 0.00 | 0.00 | 1020.7 | |
| 20260905105035 | 0 | 46 | 3.0 | 6.0 | 0.00 | 0.00 | 0.00 | 1020.7 | |
| 20260905104935 | 0 | 40 | 2.0 | 6.0 | 0.00 | 0.00 | 0.00 | 1020.7 | |
| 20260905104850 | 0 | 28 | 2.0 | 6.0 | 0.00 | 0.00 | 0.00 | 1020.7 | |
| 20260905104835 | 0 | 38 | 2.0 | 5.0 | 0.00 | 0.00 | 0.00 | 1020.6 | |
| 20260905104735 | 0 | 5 | 2.0 | 5.0 | 0.00 | 0.00 | 0.00 | 1020.7 | |
| 20260905104636 | 0 | 25 | 2.0 | 5.0 | 0.00 | 0.00 | 0.00 | 1020.7 | |
| 20260905104533 | 0 | 5 | 1.0 | 4.0 | 0.00 | 0.00 | 0.00 | 1020.6 | |
| 20260905104441 | 0 | 311 | 1.0 | 3.0 | 0.00 | 0.00 | 0.00 | 1020.6 | |
| 20260905104434 | 0 | 311 | 1.0 | 3.0 | 0.00 | 0.00 | 0.00 | 1020.6 | |
| 20260905104229 | 0 | 311 | 1.0 | 3.0 | 0.00 | 0.00 | 0.00 | 1020.6 | |
| 20260905104126 | 0 | 311 | 1.0 | 3.0 | 0.00 | 0.00 | 0.00 | 1020.6 | |
| 20260905104025 | 0 | 311 | 2.0 | 3.0 | 0.00 | 0.00 | 0.00 | 1020.6 | |
| 20260905103921 | 0 | 311 | 2.0 | 4.0 | 0.00 | 0.00 | 0.00 | 1020.6 | |
| 20260905103819 | 0 | 311 | 2.0 | 4.0 | 0.00 | 0.00 | 0.00 | 1020.6 | |
| 20260905103720 | 0 | 311 | 2.0 | 4.0 | 0.00 | 0.00 | 0.00 | 1020.5 | |
| 20260905103620 | 0 | 311 | 2.0 | 4.0 | 0.00 | 0.00 | 0.00 | 1020.6 | |
| 20260905103553 | 0 | 311 | 2.0 | 4.0 | 0.00 | 0.00 | 0.00 | 1020.5 | |
| 20260905103439 | 0 | 311 | 2.0 | 4.0 | 0.00 | 0.00 | 0.00 | 1020.5 | |
| 20260905103214 | 0 | 311 | 2.0 | 4.0 | 0.00 | 0.00 | 0.00 | 1020.4 | |
| 20260905103114 | 0 | 325 | 2.0 | 4.0 | 0.00 | 0.00 | 0.00 | 1020.4 | |
| 20260905103018 | 63 | 315 | 2.0 | 4.0 | 0.00 | 0.00 | 0.00 | 47 | 1020.4 |
| 20260905102828 | 63 | 316 | 1.0 | 4.0 | 0.00 | 0.00 | 0.00 | 47 | 1020.5 |
| 20260905102814 | 63 | 355 | 1.0 | 3.0 | 0.00 | 0.00 | 0.00 | 47 | 1020.5 |
| 20260905102607 | 63 | 355 | 1.0 | 3.0 | 0.00 | 0.00 | 0.00 | 47 | 1020.5 |
| 20260905102507 | 63 | 355 | 1.0 | 3.0 | 0.00 | 0.00 | 0.00 | 47 | 1020.4 |
| 20260905102429 | 63 | 355 | 1.0 | 3.0 | 0.00 | 0.00 | 0.00 | 47 | 1020.5 |
| 20260905102301 | 63 | 355 | 1.0 | 3.0 | 0.00 | 0.00 | 0.00 | 47 | 1020.5 |
| 20260905102201 | 63 | 355 | 1.0 | 3.0 | 0.00 | 0.00 | 0.00 | 47 | 1020.5 |
| 20260905102101 | 63 | 355 | 1.0 | 3.0 | 0.00 | 0.00 | 0.00 | 47 | 1020.5 |
| 20260905102017 | 63 | 355 | 1.0 | 3.0 | 0.00 | 0.00 | 0.00 | 47 | 1020.5 |
| 20260905102010 | 63 | 355 | 1.0 | 3.0 | 0.00 | 0.00 | 0.00 | 47 | 1020.5 |
| 20260905101705 | 63 | 355 | 1.0 | 3.0 | 0.00 | 0.00 | 0.00 | 47 | 1020.4 |
| 20260905101457 | 63 | 209 | 1.0 | 2.0 | 0.00 | 0.00 | 0.00 | 47 | 1020.5 |
| 20260905101416 | 63 | 209 | 1.0 | 2.0 | 0.00 | 0.00 | 0.00 | 47 | 1020.5 |
| 20260905101408 | 63 | 209 | 1.0 | 2.0 | 0.00 | 0.00 | 0.00 | 47 | 1020.4 |
| 20260905101105 | 63 | 209 | 1.0 | 2.0 | 0.00 | 0.00 | 0.00 | 47 | 1020.4 |
| 20260905100920 | 63 | 209 | 1.0 | 2.0 | 0.00 | 0.00 | 0.00 | 47 | 1020.5 |
| 20260905100756 | 64 | 209 | 1.0 | 2.0 | 0.00 | 0.00 | 0.00 | 47 | 1020.4 |
| 20260905100656 | 64 | 209 | 1.0 | 2.0 | 0.00 | 0.00 | 0.00 | 47 | 1020.4 |
| 20260905100553 | 64 | 209 | 1.0 | 2.0 | 0.00 | 0.00 | 0.00 | 46 | 1020.4 |
| 20260905100451 | 64 | 209 | 1.0 | 2.0 | 0.00 | 0.00 | 0.00 | 46 | 1020.4 |
| 20260905100401 | 64 | 209 | 0.0 | 2.0 | 0.00 | 0.00 | 0.00 | 46 | 1020.4 |
| 20260905100354 | 64 | 209 | 0.0 | 2.0 | 0.00 | 0.00 | 0.00 | 46 | 1020.5 |
| 20260905100154 | 64 | 209 | 0.0 | 2.0 | 0.00 | 0.00 | 0.00 | 46 | 1020.4 |
| 20260905095946 | 64 | 209 | 0.0 | 2.0 | 0.00 | 0.00 | 0.00 | 46 | 1020.4 |
| 20260905095907 | 64 | 209 | 0.0 | 2.0 | 0.00 | 0.00 | 0.00 | 46 | 1020.4 |
| 20260905095739 | 64 | 209 | 1.0 | 2.0 | 0.00 | 0.00 | 0.00 | 46 | 1020.4 |
| 20260905095639 | 64 | 209 | 1.0 | 2.0 | 0.00 | 0.00 | 0.00 | 46 | 1020.4 |
| 20260905095540 | 64 | 209 | 1.0 | 2.0 | 0.00 | 0.00 | 0.00 | 46 | 1020.4 |
| 20260905095439 | 64 | 209 | 1.0 | 3.0 | 0.00 | 0.00 | 0.00 | 46 | 1020.3 |
| 20260905095337 | 64 | 209 | 1.0 | 3.0 | 0.00 | 0.00 | 0.00 | 45 | 1020.4 |
| 20260905095254 | 64 | 209 | 1.0 | 4.0 | 0.00 | 0.00 | 0.00 | 45 | 1020.4 |
| 20260905095238 | 64 | 209 | 2.0 | 4.0 | 0.00 | 0.00 | 0.00 | 45 | 1020.3 |
| 20260905095137 | 65 | 209 | 2.0 | 4.0 | 0.00 | 0.00 | 0.00 | 45 | 1020.3 |
| 20260905095035 | 65 | 209 | 2.0 | 4.0 | 0.00 | 0.00 | 0.00 | 45 | 1020.3 |
| 20260905094933 | 65 | 209 | 2.0 | 4.0 | 0.00 | 0.00 | 0.00 | 45 | 1020.3 |
| 20260905094846 | 65 | 209 | 2.0 | 4.0 | 0.00 | 0.00 | 0.00 | 45 | 1020.3 |
| 20260905094839 | 65 | 209 | 2.0 | 4.0 | 0.00 | 0.00 | 0.00 | 45 | 1020.3 |
| 20260905094528 | 65 | 209 | 2.0 | 4.0 | 0.00 | 0.00 | 0.00 | 45 | 1020.3 |
| 20260905094456 | 65 | 209 | 2.0 | 4.0 | 0.00 | 0.00 | 0.00 | 45 | 1020.4 |
| 20260905094229 | 65 | 216 | 2.0 | 4.0 | 0.00 | 0.00 | 0.00 | 45 | 1020.3 |
| 20260905094021 | 64 | 246 | 2.0 | 4.0 | 0.00 | 0.00 | 0.00 | 45 | 1020.3 |
| 20260905093940 | 64 | 240 | 2.0 | 4.0 | 0.00 | 0.00 | 0.00 | 45 | 1020.3 |
| 20260905093826 | 64 | 221 | 2.0 | 4.0 | 0.00 | 0.00 | 0.00 | 46 | 1020.2 |
| 20260905093530 | 64 | 225 | 2.0 | 4.0 | 0.00 | 0.00 | 0.00 | 46 | 1020.2 |
| 20260905093215 | 64 | 236 | 2.0 | 3.0 | 0.00 | 0.00 | 0.00 | 46 | 1020.2 |
| 20260905093114 | 64 | 236 | 2.0 | 3.0 | 0.00 | 0.00 | 0.00 | 45 | 1020.0 |
| 20260905093012 | 64 | 236 | 2.0 | 3.0 | 0.00 | 0.00 | 0.00 | 45 | 1020.0 |
| 20260905092913 | 64 | 236 | 2.0 | 3.0 | 0.00 | 0.00 | 0.00 | 46 | 1020.2 |
| 20260905092724 | 64 | 227 | 2.0 | 3.0 | 0.00 | 0.00 | 0.00 | 45 | 1020.0 |
| 20260905092703 | 64 | 224 | 2.0 | 3.0 | 0.00 | 0.00 | 0.00 | 45 | 1020.0 |
| 20260905092616 | 64 | 235 | 2.0 | 3.0 | 0.00 | 0.00 | 0.00 | 45 | 1020.0 |
| 20260905092326 | 64 | 233 | 1.0 | 3.0 | 0.00 | 0.00 | 0.00 | 45 | 1020.0 |
| 20260905092200 | 65 | 233 | 1.0 | 3.0 | 0.00 | 0.00 | 0.00 | 45 | 1020.0 |
| 20260905092059 | 65 | 233 | 1.0 | 3.0 | 0.00 | 0.00 | 0.00 | 45 | 1020.0 |
| 20260905091959 | 65 | 233 | 1.0 | 3.0 | 0.00 | 0.00 | 0.00 | 45 | 1020.0 |
| 20260905091858 | 65 | 233 | 1.0 | 3.0 | 0.00 | 0.00 | 0.00 | 45 | 1020.0 |
| 20260905091752 | 65 | 233 | 1.0 | 3.0 | 0.00 | 0.00 | 0.00 | 45 | 1019.9 |
| 20260905091714 | 65 | 233 | 1.0 | 3.0 | 0.00 | 0.00 | 0.00 | 45 | 1019.9 |
| 20260905091658 | 65 | 233 | 1.0 | 3.0 | 0.00 | 0.00 | 0.00 | 45 | 1019.9 |
| 20260905091451 | 65 | 233 | 2.0 | 3.0 | 0.00 | 0.00 | 0.00 | 45 | 1019.9 |
| 20260905091351 | 65 | 233 | 2.0 | 3.0 | 0.00 | 0.00 | 0.00 | 44 | 1019.9 |
| 20260905091248 | 65 | 233 | 2.0 | 3.0 | 0.00 | 0.00 | 0.00 | 44 | 1019.9 |
| 20260905091208 | 65 | 233 | 2.0 | 3.0 | 0.00 | 0.00 | 0.00 | 44 | 1019.9 |
| 20260905091146 | 65 | 233 | 2.0 | 3.0 | 0.00 | 0.00 | 0.00 | 44 | 1019.9 |
| 20260905091045 | 65 | 217 | 2.0 | 4.0 | 0.00 | 0.00 | 0.00 | 45 | 1019.9 |
| 20260905090945 | 65 | 232 | 2.0 | 4.0 | 0.00 | 0.00 | 0.00 | 45 | 1019.9 |
| 20260905090845 | 65 | 232 | 2.0 | 4.0 | 0.00 | 0.00 | 0.00 | 45 | 1019.9 |
| 20260905090750 | 65 | 232 | 2.0 | 4.0 | 0.00 | 0.00 | 0.00 | 45 | 1019.9 |
| 20260905090503 | 65 | 232 | 2.0 | 4.0 | 0.00 | 0.00 | 0.00 | 45 | 1019.9 |
| 20260905090243 | 65 | 232 | 2.0 | 4.0 | 0.00 | 0.00 | 0.00 | 45 | 1019.9 |
| 20260905090038 | 65 | 232 | 2.0 | 4.0 | 0.00 | 0.00 | 0.00 | 45 | 1020.0 |
| 20260905085935 | 65 | 232 | 2.0 | 4.0 | 0.00 | 0.00 | 0.00 | 45 | 1020.0 |
| 20260905085846 | 65 | 232 | 2.0 | 4.0 | 0.00 | 0.00 | 0.00 | 45 | 1020.0 |
| 20260905085840 | 65 | 232 | 2.0 | 4.0 | 0.00 | 0.00 | 0.00 | 45 | 1020.0 |
| 20260905085527 | 65 | 245 | 2.0 | 5.0 | 0.00 | 0.00 | 0.00 | 45 | 1019.9 |
| 20260905085427 | 65 | 233 | 2.0 | 5.0 | 0.00 | 0.00 | 0.00 | 45 | 1020.0 |
| 20260905085333 | 65 | 227 | 2.0 | 5.0 | 0.00 | 0.00 | 0.00 | 45 | 1020.0 |
| 20260905085143 | 65 | 217 | 2.0 | 5.0 | 0.00 | 0.00 | 0.00 | 45 | 1020.0 |
| 20260905085126 | 65 | 242 | 2.0 | 5.0 | 0.00 | 0.00 | 0.00 | 45 | 1020.0 |
| 20260905085026 | 65 | 242 | 2.0 | 5.0 | 0.00 | 0.00 | 0.00 | 45 | 1020.0 |
| 20260905084940 | 65 | 227 | 2.0 | 5.0 | 0.00 | 0.00 | 0.00 | 45 | 1020.0 |
| 20260905084720 | 65 | 218 | 2.0 | 5.0 | 0.00 | 0.00 | 0.00 | 45 | 1020.0 |
| 20260905084516 | 65 | 186 | 2.0 | 4.0 | 0.00 | 0.00 | 0.00 | 45 | 1020.0 |
| 20260905084416 | 65 | 205 | 2.0 | 4.0 | 0.00 | 0.00 | 0.00 | 45 | 1020.0 |
| 20260905084315 | 65 | 207 | 2.0 | 4.0 | 0.00 | 0.00 | 0.00 | 45 | 1020.0 |
| 20260905084220 | 65 | 250 | 2.0 | 4.0 | 0.00 | 0.00 | 0.00 | 45 | 1020.0 |
| 20260905084213 | 65 | 213 | 2.0 | 4.0 | 0.00 | 0.00 | 0.00 | 45 | 1020.0 |
| 20260905084010 | 65 | 220 | 2.0 | 4.0 | 0.00 | 0.00 | 0.00 | 45 | 1019.9 |
| 20260905083910 | 65 | 228 | 2.0 | 4.0 | 0.00 | 0.00 | 0.00 | 45 | 1020.0 |
| 20260905083832 | 65 | 224 | 2.0 | 4.0 | 0.00 | 0.00 | 0.00 | 45 | 1019.9 |
| 20260905083825 | 65 | 205 | 2.0 | 4.0 | 0.00 | 0.00 | 0.00 | 45 | 1020.0 |
| 20260905083410 | 65 | 259 | 2.0 | 4.0 | 0.00 | 0.00 | 0.00 | 45 | 1020.0 |
| 20260905083202 | 65 | 233 | 2.0 | 4.0 | 0.00 | 0.00 | 0.00 | 45 | 1020.0 |
| 20260905083125 | 65 | 233 | 2.0 | 4.0 | 0.00 | 0.00 | 0.00 | 45 | 1020.0 |
| 20260905083108 | 65 | 239 | 2.0 | 4.0 | 0.00 | 0.00 | 0.00 | 45 | 1020.0 |
| 20260905082859 | 65 | 223 | 2.0 | 4.0 | 0.00 | 0.00 | 0.00 | 45 | 1020.0 |
| 20260905082801 | 65 | 207 | 2.0 | 4.0 | 0.00 | 0.00 | 0.00 | 45 | 1020.2 |
| 20260905082623 | 65 | 216 | 2.0 | 4.0 | 0.00 | 0.00 | 0.00 | 45 | 1020.2 |
| 20260905082552 | 65 | 218 | 2.0 | 4.0 | 0.00 | 0.00 | 0.00 | 45 | 1020.2 |
| 20260905082451 | 65 | 218 | 2.0 | 4.0 | 0.00 | 0.00 | 0.00 | 45 | 1020.2 |
| 20260905082351 | 65 | 221 | 2.0 | 4.0 | 0.00 | 0.00 | 0.00 | 45 | 1020.2 |
| 20260905082251 | 65 | 198 | 2.0 | 4.0 | 0.00 | 0.00 | 0.00 | 45 | 1020.2 |
| 20260905082123 | 65 | 229 | 2.0 | 4.0 | 0.00 | 0.00 | 0.00 | 45 | 1020.2 |
| 20260905082050 | 65 | 229 | 2.0 | 4.0 | 0.00 | 0.00 | 0.00 | 45 | 1020.2 |
| 20260905081949 | 65 | 207 | 2.0 | 4.0 | 0.00 | 0.00 | 0.00 | 45 | 1020.2 |
| 20260905081847 | 65 | 245 | 2.0 | 4.0 | 0.00 | 0.00 | 0.00 | 45 | 1020.2 |
| 20260905081746 | 65 | 203 | 2.0 | 4.0 | 0.00 | 0.00 | 0.00 | 45 | 1020.3 |
| 20260905081640 | 65 | 196 | 2.0 | 4.0 | 0.00 | 0.00 | 0.00 | 45 | 1020.3 |
| 20260905081623 | 65 | 196 | 2.0 | 4.0 | 0.00 | 0.00 | 0.00 | 45 | 1020.2 |
| 20260905081539 | 65 | 220 | 2.0 | 4.0 | 0.00 | 0.00 | 0.00 | 45 | 1020.2 |
| 20260905081439 | 65 | 208 | 2.0 | 4.0 | 0.00 | 0.00 | 0.00 | 44 | 1020.2 |
| 20260905081340 | 65 | 206 | 2.0 | 4.0 | 0.00 | 0.00 | 0.00 | 44 | 1020.2 |
| 20260905081239 | 65 | 202 | 2.0 | 4.0 | 0.00 | 0.00 | 0.00 | 44 | 1020.2 |
| 20260905081137 | 65 | 226 | 2.0 | 4.0 | 0.00 | 0.00 | 0.00 | 44 | 1020.2 |
| 20260905081122 | 65 | 217 | 2.0 | 4.0 | 0.00 | 0.00 | 0.00 | 44 | 1020.2 |
| 20260905081038 | 65 | 231 | 2.0 | 4.0 | 0.00 | 0.00 | 0.00 | 44 | 1020.2 |
| 20260905080939 | 65 | 227 | 2.0 | 4.0 | 0.00 | 0.00 | 0.00 | 44 | 1020.2 |
| 20260905080902 | 65 | 226 | 2.0 | 4.0 | 0.00 | 0.00 | 0.00 | 44 | 1020.2 |
| 20260905080642 | 65 | 268 | 2.0 | 4.0 | 0.00 | 0.00 | 0.00 | 44 | 1020.2 |
| 20260905080438 | 65 | 234 | 2.0 | 4.0 | 0.00 | 0.00 | 0.00 | 44 | 1020.2 |
| 20260905080338 | 65 | 214 | 2.0 | 4.0 | 0.00 | 0.00 | 0.00 | 44 | 1020.2 |
| 20260905080238 | 65 | 226 | 2.0 | 4.0 | 0.00 | 0.00 | 0.00 | 44 | 1020.2 |
| 20260905080202 | 65 | 226 | 2.0 | 4.0 | 0.00 | 0.00 | 0.00 | 44 | 1020.2 |
| 20260905080155 | 65 | 226 | 3.0 | 4.0 | 0.00 | 0.00 | 0.00 | 45 | 1020.2 |
| 20260905075737 | 65 | 245 | 3.0 | 4.0 | 0.00 | 0.00 | 0.00 | 45 | 1020.2 |
| 20260905075648 | 65 | 247 | 2.0 | 4.0 | 0.00 | 0.00 | 0.00 | 45 | 1020.0 |
| 20260905075641 | 65 | 257 | 2.0 | 4.0 | 0.00 | 0.00 | 0.00 | 45 | 1020.0 |
| 20260905075436 | 65 | 248 | 2.0 | 4.0 | 0.00 | 0.00 | 0.00 | 45 | 1020.2 |
| 20260905075335 | 65 | 254 | 2.0 | 4.0 | 0.00 | 0.00 | 0.00 | 46 | 1020.2 |
| 20260905075235 | 65 | 242 | 2.0 | 4.0 | 0.00 | 0.00 | 0.00 | 46 | 1020.2 |
| 20260905075133 | 65 | 236 | 2.0 | 4.0 | 0.00 | 0.00 | 0.00 | 46 | 1020.0 |
| 20260905075116 | 65 | 242 | 2.0 | 4.0 | 0.00 | 0.00 | 0.00 | 46 | 1020.0 |
| 20260905075031 | 65 | 251 | 2.0 | 4.0 | 0.00 | 0.00 | 0.00 | 46 | 1020.2 |
| 20260905074929 | 65 | 233 | 2.0 | 4.0 | 0.00 | 0.00 | 0.00 | 46 | 1020.2 |
| 20260905074829 | 65 | 238 | 2.0 | 4.0 | 0.00 | 0.00 | 0.00 | 46 | 1020.2 |
| 20260905074729 | 65 | 242 | 3.0 | 5.0 | 0.00 | 0.00 | 0.00 | 46 | 1020.2 |
| 20260905074629 | 65 | 219 | 3.0 | 5.0 | 0.00 | 0.00 | 0.00 | 46 | 1020.3 |
| 20260905074616 | 65 | 235 | 3.0 | 5.0 | 0.00 | 0.00 | 0.00 | 46 | 1020.3 |
| 20260905074529 | 65 | 217 | 3.0 | 5.0 | 0.00 | 0.00 | 0.00 | 46 | 1020.3 |
| 20260905074420 | 65 | 213 | 3.0 | 5.0 | 0.00 | 0.00 | 0.00 | 46 | 1020.3 |
| 20260905074335 | 65 | 199 | 3.0 | 5.0 | 0.00 | 0.00 | 0.00 | 46 | 1020.3 |
| 20260905074328 | 65 | 194 | 3.0 | 5.0 | 0.00 | 0.00 | 0.00 | 46 | 1020.3 |
| 20260905074018 | 65 | 196 | 3.0 | 5.0 | 0.00 | 0.00 | 0.00 | 45 | 1020.4 |
| 20260905073917 | 65 | 199 | 2.0 | 5.0 | 0.00 | 0.00 | 0.00 | 45 | 1020.4 |
| 20260905073818 | 65 | 175 | 2.0 | 5.0 | 0.00 | 0.00 | 0.00 | 45 | 1020.4 |
| 20260905073717 | 66 | 171 | 2.0 | 5.0 | 0.00 | 0.00 | 0.00 | 45 | 1020.4 |
| 20260905073619 | 66 | 177 | 2.0 | 4.0 | 0.00 | 0.00 | 0.00 | 45 | 1020.4 |
| 20260905073615 | 66 | 179 | 2.0 | 4.0 | 0.00 | 0.00 | 0.00 | 45 | 1020.4 |
| 20260905073527 | 66 | 188 | 2.0 | 4.0 | 0.00 | 0.00 | 0.00 | 45 | 1020.4 |
| 20260905073213 | 66 | 204 | 2.0 | 3.0 | 0.00 | 0.00 | 0.00 | 44 | 1020.3 |
| 20260905073113 | 66 | 204 | 2.0 | 3.0 | 0.00 | 0.00 | 0.00 | 44 | 1020.3 |
| 20260905073014 | 66 | 202 | 2.0 | 3.0 | 0.00 | 0.00 | 0.00 | 44 | 1020.3 |
| 20260905072913 | 66 | 202 | 2.0 | 3.0 | 0.00 | 0.00 | 0.00 | 44 | 1020.3 |
| 20260905072813 | 66 | 202 | 2.0 | 3.0 | 0.00 | 0.00 | 0.00 | 44 | 1020.3 |
| 20260905072707 | 66 | 202 | 2.0 | 3.0 | 0.00 | 0.00 | 0.00 | 44 | 1020.3 |
| 20260905072607 | 66 | 202 | 2.0 | 3.0 | 0.00 | 0.00 | 0.00 | 43 | 1020.3 |
| 20260905072505 | 66 | 202 | 2.0 | 3.0 | 0.00 | 0.00 | 0.00 | 44 | 1020.3 |
| 20260905072406 | 67 | 202 | 2.0 | 3.0 | 0.00 | 0.00 | 0.00 | 43 | 1020.3 |
| 20260905072306 | 67 | 186 | 2.0 | 3.0 | 0.00 | 0.00 | 0.00 | 43 | 1020.3 |
| 20260905072205 | 67 | 186 | 2.0 | 4.0 | 0.00 | 0.00 | 0.00 | 43 | 1020.3 |
| 20260905072105 | 67 | 184 | 2.0 | 5.0 | 0.00 | 0.00 | 0.00 | 43 | 1020.3 |
| 20260905072005 | 67 | 184 | 2.0 | 5.0 | 0.00 | 0.00 | 0.00 | 43 | 1020.3 |
| 20260905071905 | 67 | 184 | 2.0 | 5.0 | 0.00 | 0.00 | 0.00 | 43 | 1020.4 |
| 20260905071805 | 67 | 184 | 3.0 | 5.0 | 0.00 | 0.00 | 0.00 | 42 | 1020.4 |
| 20260905071703 | 67 | 184 | 3.0 | 5.0 | 0.00 | 0.00 | 0.00 | 42 | 1020.4 |
| 20260905071611 | 67 | 184 | 3.0 | 5.0 | 0.00 | 0.00 | 0.00 | 42 | 1020.4 |
| 20260905071607 | 67 | 184 | 3.0 | 5.0 | 0.00 | 0.00 | 0.00 | 42 | 1020.4 |
| 20260905071359 | 67 | 184 | 3.0 | 5.0 | 0.00 | 0.00 | 0.00 | 42 | 1020.3 |
| 20260905071300 | 67 | 169 | 3.0 | 5.0 | 0.00 | 0.00 | 0.00 | 42 | 1020.4 |
| 20260905071157 | 67 | 169 | 3.0 | 5.0 | 0.00 | 0.00 | 0.00 | 42 | 1020.4 |
| 20260905071104 | 67 | 151 | 3.0 | 5.0 | 0.00 | 0.00 | 0.00 | 42 | 1020.4 |
| 20260905071055 | 67 | 151 | 3.0 | 5.0 | 0.00 | 0.00 | 0.00 | 42 | 1020.4 |
| 20260905070956 | 67 | 149 | 3.0 | 5.0 | 0.00 | 0.00 | 0.00 | 42 | 1020.4 |
| 20260905070853 | 67 | 159 | 3.0 | 5.0 | 0.00 | 0.00 | 0.00 | 42 | 1020.4 |
| 20260905070751 | 67 | 159 | 2.0 | 5.0 | 0.00 | 0.00 | 0.00 | 42 | 1020.3 |
| 20260905070702 | 67 | 186 | 2.0 | 4.0 | 0.00 | 0.00 | 0.00 | 41 | 1020.4 |
| 20260905070656 | 67 | 190 | 2.0 | 4.0 | 0.00 | 0.00 | 0.00 | 41 | 1020.3 |
| 20260905070451 | 68 | 202 | 2.0 | 4.0 | 0.00 | 0.00 | 0.00 | 41 | 1020.3 |
| 20260905070351 | 68 | 204 | 2.0 | 4.0 | 0.00 | 0.00 | 0.00 | 40 | 1020.3 |
| 20260905070258 | 68 | 207 | 1.0 | 4.0 | 0.00 | 0.00 | 0.00 | 40 | 1020.3 |
| 20260905070059 | 68 | 213 | 2.0 | 5.0 | 0.00 | 0.00 | 0.00 | 40 | 1020.2 |
| 20260905065901 | 68 | 219 | 2.0 | 5.0 | 0.00 | 0.00 | 0.00 | 41 | 1020.2 |
| 20260905065546 | 69 | 208 | 2.0 | 5.0 | 0.00 | 0.00 | 0.00 | 41 | 1020.2 |
| 20260905065439 | 69 | 208 | 2.0 | 5.0 | 0.00 | 0.00 | 0.00 | 41 | 1020.2 |
| 20260905065339 | 69 | 175 | 3.0 | 5.0 | 0.00 | 0.00 | 0.00 | 41 | 1020.2 |
| 20260905065246 | 69 | 175 | 3.0 | 5.0 | 0.00 | 0.00 | 0.00 | 41 | 1020.2 |
| 20260905065056 | 69 | 167 | 2.0 | 5.0 | 0.00 | 0.00 | 0.00 | 40 | 1020.2 |
| 20260905065039 | 69 | 166 | 2.0 | 5.0 | 0.00 | 0.00 | 0.00 | 40 | 1020.2 |
| 20260905064937 | 69 | 157 | 2.0 | 5.0 | 0.00 | 0.00 | 0.00 | 40 | 1020.2 |
| 20260905064837 | 69 | 156 | 2.0 | 5.0 | 0.00 | 0.00 | 0.00 | 40 | 1020.2 |
| 20260905064735 | 69 | 161 | 2.0 | 4.0 | 0.00 | 0.00 | 0.00 | 39 | 1020.2 |
| 20260905064635 | 69 | 200 | 2.0 | 4.0 | 0.00 | 0.00 | 0.00 | 39 | 1020.2 |
| 20260905064557 | 69 | 200 | 2.0 | 7.0 | 0.00 | 0.00 | 0.00 | 39 | 1020.2 |
| 20260905064535 | 69 | 213 | 2.0 | 7.0 | 0.00 | 0.00 | 0.00 | 39 | 1020.0 |
| 20260905064435 | 69 | 213 | 3.0 | 7.0 | 0.00 | 0.00 | 0.00 | 39 | 1020.0 |
| 20260905064342 | 69 | 232 | 3.0 | 7.0 | 0.00 | 0.00 | 0.00 | 39 | 1020.0 |
| 20260905064134 | 69 | 238 | 3.0 | 7.0 | 0.00 | 0.00 | 0.00 | 39 | 1019.9 |
| 20260905064055 | 69 | 259 | 3.0 | 7.0 | 0.00 | 0.00 | 0.00 | 39 | 1019.9 |
| 20260905064038 | 69 | 265 | 3.0 | 7.0 | 0.00 | 0.00 | 0.00 | 39 | 1019.9 |
| 20260905063834 | 69 | 283 | 4.0 | 7.0 | 0.00 | 0.00 | 0.00 | 39 | 1019.9 |
| 20260905063702 | 69 | 262 | 4.0 | 7.0 | 0.00 | 0.00 | 0.00 | 39 | 1019.9 |
| 20260905063527 | 69 | 294 | 4.0 | 7.0 | 0.00 | 0.00 | 0.00 | 39 | 1019.9 |
| 20260905063425 | 69 | 256 | 4.0 | 7.0 | 0.00 | 0.00 | 0.00 | 39 | 1019.9 |
| 20260905063325 | 69 | 244 | 4.0 | 7.0 | 0.00 | 0.00 | 0.00 | 39 | 1019.9 |
| 20260905063225 | 69 | 288 | 4.0 | 7.0 | 0.00 | 0.00 | 0.00 | 39 | 1019.9 |
| 20260905063201 | 69 | 260 | 3.0 | 7.0 | 0.00 | 0.00 | 0.00 | 39 | 1019.9 |
| 20260905063025 | 69 | 243 | 3.0 | 7.0 | 0.00 | 0.00 | 0.00 | 39 | 1019.9 |
| 20260905062924 | 69 | 247 | 3.0 | 7.0 | 0.00 | 0.00 | 0.00 | 39 | 1019.9 |
| 20260905062823 | 69 | 266 | 3.0 | 7.0 | 0.00 | 0.00 | 0.00 | 39 | 1020.0 |
| 20260905062723 | 69 | 253 | 2.0 | 5.0 | 0.00 | 0.00 | 0.00 | 39 | 1020.0 |
| 20260905062623 | 69 | 271 | 2.0 | 4.0 | 0.00 | 0.00 | 0.00 | 39 | 1020.0 |
| 20260905062553 | 69 | 259 | 2.0 | 4.0 | 0.00 | 0.00 | 0.00 | 39 | 1020.0 |
| 20260905062521 | 70 | 240 | 2.0 | 4.0 | 0.00 | 0.00 | 0.00 | 39 | 1020.0 |
| 20260905062428 | 70 | 244 | 2.0 | 4.0 | 0.00 | 0.00 | 0.00 | 39 | 1020.2 |
| 20260905062215 | 70 | 250 | 2.0 | 4.0 | 0.00 | 0.00 | 0.00 | 39 | 1020.2 |
| 20260905062115 | 70 | 246 | 2.0 | 4.0 | 0.00 | 0.00 | 0.00 | 39 | 1020.2 |
| 20260905062052 | 70 | 246 | 2.0 | 4.0 | 0.00 | 0.00 | 0.00 | 39 | 1020.2 |
| 20260905062015 | 70 | 266 | 2.0 | 4.0 | 0.00 | 0.00 | 0.00 | 39 | 1020.2 |
| 20260905061916 | 70 | 246 | 2.0 | 4.0 | 0.00 | 0.00 | 0.00 | 39 | 1020.2 |
| 20260905061815 | 70 | 240 | 2.0 | 4.0 | 0.00 | 0.00 | 0.00 | 39 | 1020.2 |
| 20260905061722 | 70 | 226 | 2.0 | 4.0 | 0.00 | 0.00 | 0.00 | 39 | 1020.2 |
| 20260905061553 | 71 | 209 | 2.0 | 4.0 | 0.00 | 0.00 | 0.00 | 38 | 1020.2 |
| 20260905061515 | 71 | 209 | 2.0 | 4.0 | 0.00 | 0.00 | 0.00 | 38 | 1020.2 |
| 20260905061447 | 71 | 208 | 2.0 | 4.0 | 0.00 | 0.00 | 0.00 | 38 | 1020.2 |
| 20260905061333 | 71 | 177 | 2.0 | 4.0 | 0.00 | 0.00 | 0.00 | 38 | 1020.2 |
| 20260905060916 | 71 | 177 | 1.0 | 4.0 | 0.00 | 0.00 | 0.00 | 38 | 1020.0 |
| 20260905060816 | 72 | 188 | 1.0 | 3.0 | 0.00 | 0.00 | 0.00 | 38 | 1020.0 |
| 20260905060716 | 72 | 209 | 1.0 | 4.0 | 0.00 | 0.00 | 0.00 | 38 | 1020.0 |
| 20260905060615 | 72 | 209 | 1.0 | 4.0 | 0.00 | 0.00 | 0.00 | 38 | 1020.0 |
| 20260905060535 | 72 | 209 | 1.0 | 4.0 | 0.00 | 0.00 | 0.00 | 38 | 1020.0 |
| 20260905060111 | 72 | 257 | 2.0 | 6.0 | 0.00 | 0.00 | 0.00 | 37 | 1020.0 |
| 20260905060051 | 73 | 257 | 2.0 | 6.0 | 0.00 | 0.00 | 0.00 | 38 | 1020.0 |
| 20260905060012 | 73 | 257 | 2.0 | 6.0 | 0.00 | 0.00 | 0.00 | 38 | 1020.0 |
| 20260905055911 | 73 | 257 | 3.0 | 6.0 | 0.00 | 0.00 | 0.00 | 37 | 1020.0 |
| 20260905055805 | 73 | 257 | 3.0 | 7.0 | 0.00 | 0.00 | 0.00 | 38 | 1019.9 |
| 20260905055759 | 73 | 225 | 3.0 | 7.0 | 0.00 | 0.00 | 0.00 | 37 | 1019.9 |
| 20260905055506 | 73 | 292 | 4.0 | 7.0 | 0.00 | 0.00 | 0.00 | 37 | 1019.9 |
| 20260905055405 | 73 | 254 | 4.0 | 7.0 | 0.00 | 0.00 | 0.00 | 37 | 1019.9 |
| 20260905055300 | 73 | 265 | 4.0 | 9.0 | 0.00 | 0.00 | 0.00 | 37 | 1019.9 |
| 20260905055159 | 73 | 290 | 4.0 | 9.0 | 0.00 | 0.00 | 0.00 | 37 | 1019.9 |
| 20260905055059 | 73 | 291 | 4.0 | 9.0 | 0.00 | 0.00 | 0.00 | 37 | 1019.9 |
| 20260905055039 | 73 | 282 | 4.0 | 9.0 | 0.00 | 0.00 | 0.00 | 37 | 1019.9 |
| 20260905055000 | 73 | 304 | 4.0 | 9.0 | 0.00 | 0.00 | 0.00 | 37 | 1019.9 |
| 20260905054859 | 73 | 275 | 4.0 | 9.0 | 0.00 | 0.00 | 0.00 | 37 | 1019.8 |
| 20260905054753 | 73 | 304 | 4.0 | 9.0 | 0.00 | 0.00 | 0.00 | 36 | 1019.9 |
| 20260905054653 | 73 | 273 | 4.0 | 9.0 | 0.00 | 0.00 | 0.00 | 36 | 1019.8 |
| 20260905054553 | 73 | 296 | 4.0 | 9.0 | 0.00 | 0.00 | 0.00 | 36 | 1019.8 |
| 20260905054532 | 73 | 282 | 4.0 | 9.0 | 0.00 | 0.00 | 0.00 | 36 | 1019.8 |
| 20260905054454 | 73 | 267 | 4.0 | 9.0 | 0.00 | 0.00 | 0.00 | 36 | 1019.8 |
| 20260905054353 | 74 | 295 | 4.0 | 8.0 | 0.00 | 0.00 | 0.00 | 36 | 1019.8 |
| 20260905054254 | 74 | 278 | 4.0 | 8.0 | 0.00 | 0.00 | 0.00 | 35 | 1019.8 |
| 20260905054133 | 74 | 283 | 4.0 | 10.0 | 0.00 | 0.00 | 0.00 | 35 | 1019.8 |
| 20260905053954 | 74 | 301 | 5.0 | 10.0 | 0.00 | 0.00 | 0.00 | 35 | 1019.8 |
| 20260905053741 | 74 | 280 | 6.0 | 10.0 | 0.00 | 0.00 | 0.00 | 35 | 1019.8 |
| 20260905053641 | 74 | 275 | 6.0 | 10.0 | 0.00 | 0.00 | 0.00 | 35 | 1019.8 |
| 20260905053627 | 74 | 313 | 6.0 | 10.0 | 0.00 | 0.00 | 0.00 | 35 | 1019.8 |
| 20260905053441 | 74 | 307 | 6.0 | 10.0 | 0.00 | 0.00 | 0.00 | 35 | 1019.8 |
| 20260905053341 | 74 | 299 | 6.0 | 10.0 | 0.00 | 0.00 | 0.00 | 35 | 1019.8 |
| 20260905053242 | 74 | 271 | 6.0 | 10.0 | 0.00 | 0.00 | 0.00 | 35 | 1019.8 |
| 20260905053036 | 74 | 286 | 5.0 | 10.0 | 0.00 | 0.00 | 0.00 | 36 | 1019.8 |
| 20260905053014 | 74 | 319 | 5.0 | 10.0 | 0.00 | 0.00 | 0.00 | 36 | 1019.8 |
| 20260905052936 | 74 | 298 | 5.0 | 10.0 | 0.00 | 0.00 | 0.00 | 36 | 1019.8 |
| 20260905052835 | 74 | 304 | 4.0 | 9.0 | 0.00 | 0.00 | 0.00 | 36 | 1019.8 |
| 20260905052729 | 74 | 299 | 4.0 | 9.0 | 0.00 | 0.00 | 0.00 | 36 | 1019.8 |
| 20260905052647 | 74 | 294 | 4.0 | 9.0 | 0.00 | 0.00 | 0.00 | 36 | 1019.7 |
| 20260905052640 | 73 | 313 | 4.0 | 9.0 | 0.00 | 0.00 | 0.00 | 36 | 1019.8 |
| 20260905052329 | 74 | 311 | 4.0 | 9.0 | 0.00 | 0.00 | 0.00 | 36 | 1019.7 |
| 20260905052224 | 74 | 282 | 4.0 | 9.0 | 0.00 | 0.00 | 0.00 | 36 | 1019.7 |
| 20260905052123 | 74 | 297 | 4.0 | 9.0 | 0.00 | 0.00 | 0.00 | 36 | 1019.7 |
| 20260905052023 | 74 | 291 | 4.0 | 9.0 | 0.00 | 0.00 | 0.00 | 36 | 1019.7 |
| 20260905052008 | 74 | 314 | 4.0 | 9.0 | 0.00 | 0.00 | 0.00 | 36 | 1019.7 |
| 20260905051923 | 74 | 316 | 4.0 | 9.0 | 0.00 | 0.00 | 0.00 | 36 | 1019.7 |
| 20260905051824 | 74 | 323 | 4.0 | 9.0 | 0.00 | 0.00 | 0.00 | 36 | 1019.7 |
| 20260905051724 | 74 | 298 | 4.0 | 9.0 | 0.00 | 0.00 | 0.00 | 35 | 1019.7 |
| 20260905051631 | 74 | 296 | 4.0 | 8.0 | 0.00 | 0.00 | 0.00 | 36 | 1019.7 |
| 20260905051509 | 74 | 319 | 5.0 | 8.0 | 0.00 | 0.00 | 0.00 | 36 | 1019.7 |
| 20260905051423 | 74 | 291 | 5.0 | 9.0 | 0.00 | 0.00 | 0.00 | 36 | 1019.7 |
| 20260905051321 | 74 | 316 | 5.0 | 9.0 | 0.00 | 0.00 | 0.00 | 36 | 1019.7 |
| 20260905051222 | 74 | 302 | 5.0 | 9.0 | 0.00 | 0.00 | 0.00 | 36 | 1019.8 |
| 20260905051124 | 74 | 271 | 5.0 | 9.0 | 0.00 | 0.00 | 0.00 | 36 | 1019.8 |
| 20260905051009 | 74 | 332 | 5.0 | 9.0 | 0.00 | 0.00 | 0.00 | 36 | 1019.7 |
| 20260905050917 | 74 | 336 | 5.0 | 9.0 | 0.00 | 0.00 | 0.00 | 36 | 1019.8 |
| 20260905050817 | 74 | 317 | 5.0 | 9.0 | 0.00 | 0.00 | 0.00 | 36 | 1019.8 |
| 20260905050717 | 74 | 325 | 5.0 | 9.0 | 0.00 | 0.00 | 0.00 | 36 | 1019.8 |
| 20260905050620 | 74 | 306 | 5.0 | 9.0 | 0.00 | 0.00 | 0.00 | 36 | 1019.7 |
| 20260905050614 | 74 | 295 | 5.0 | 9.0 | 0.00 | 0.00 | 0.00 | 36 | 1019.8 |
| 20260905050429 | 74 | 314 | 5.0 | 9.0 | 0.00 | 0.00 | 0.00 | 35 | 1019.8 |
| 20260905050116 | 74 | 313 | 5.0 | 9.0 | 0.00 | 0.00 | 0.00 | 35 | 1019.8 |
| 20260905050015 | 74 | 296 | 5.0 | 9.0 | 0.00 | 0.00 | 0.00 | 35 | 1019.8 |
| 20260905050005 | 74 | 310 | 5.0 | 9.0 | 0.00 | 0.00 | 0.00 | 35 | 1019.8 |
| 20260905045915 | 74 | 310 | 5.0 | 9.0 | 0.00 | 0.00 | 0.00 | 34 | 1019.8 |
| 20260905045816 | 74 | 331 | 5.0 | 9.0 | 0.00 | 0.00 | 0.00 | 34 | 1019.8 |
| 20260905045715 | 74 | 310 | 5.0 | 9.0 | 0.00 | 0.00 | 0.00 | 34 | 1019.8 |
| 20260905045616 | 74 | 313 | 5.0 | 9.0 | 0.00 | 0.00 | 0.00 | 34 | 1019.8 |
| 20260905045502 | 74 | 328 | 5.0 | 9.0 | 0.00 | 0.00 | 0.00 | 34 | 1019.8 |
| 20260905045409 | 74 | 319 | 5.0 | 9.0 | 0.00 | 0.00 | 0.00 | 34 | 1019.8 |
| 20260905045316 | 74 | 319 | 5.0 | 9.0 | 0.00 | 0.00 | 0.00 | 34 | 1019.8 |
| 20260905045110 | 74 | 317 | 4.0 | 8.0 | 0.00 | 0.00 | 0.00 | 34 | 1019.8 |
| 20260905045005 | 74 | 335 | 4.0 | 8.0 | 0.00 | 0.00 | 0.00 | 34 | 1019.8 |
| 20260905044905 | 74 | 325 | 4.0 | 8.0 | 0.00 | 0.00 | 0.00 | 34 | 1019.8 |
| 20260905044805 | 74 | 317 | 4.0 | 8.0 | 0.00 | 0.00 | 0.00 | 35 | 1019.8 |
| 20260905044705 | 74 | 306 | 4.0 | 8.0 | 0.00 | 0.00 | 0.00 | 34 | 1019.8 |
| 20260905044603 | 74 | 282 | 4.0 | 8.0 | 0.00 | 0.00 | 0.00 | 34 | 1019.8 |
| 20260905044503 | 74 | 319 | 4.0 | 8.0 | 0.00 | 0.00 | 0.00 | 35 | 1019.8 |
| 20260905044458 | 74 | 329 | 4.0 | 8.0 | 0.00 | 0.00 | 0.00 | 35 | 1019.8 |
| 20260905044357 | 74 | 310 | 5.0 | 9.0 | 0.00 | 0.00 | 0.00 | 34 | 1019.8 |
| 20260905044257 | 74 | 321 | 5.0 | 10.0 | 0.00 | 0.00 | 0.00 | 34 | 1019.8 |
| 20260905044158 | 74 | 342 | 5.0 | 10.0 | 0.00 | 0.00 | 0.00 | 35 | 1019.8 |
| 20260905044106 | 74 | 313 | 5.0 | 10.0 | 0.00 | 0.00 | 0.00 | 34 | 1019.8 |
| 20260905044059 | 74 | 326 | 5.0 | 10.0 | 0.00 | 0.00 | 0.00 | 34 | 1019.8 |
| 20260905043855 | 74 | 313 | 5.0 | 10.0 | 0.00 | 0.00 | 0.00 | 34 | 1019.8 |
| 20260905043755 | 74 | 307 | 5.0 | 10.0 | 0.00 | 0.00 | 0.00 | 34 | 1019.8 |
| 20260905043658 | 74 | 323 | 5.0 | 10.0 | 0.00 | 0.00 | 0.00 | 34 | 1019.8 |
| 20260905043500 | 74 | 300 | 5.0 | 10.0 | 0.00 | 0.00 | 0.00 | 34 | 1019.8 |
| 20260905043447 | 74 | 317 | 5.0 | 10.0 | 0.00 | 0.00 | 0.00 | 34 | 1019.8 |
| 20260905043345 | 74 | 302 | 5.0 | 10.0 | 0.00 | 0.00 | 0.00 | 34 | 1019.9 |
| 20260905043245 | 74 | 322 | 5.0 | 9.0 | 0.00 | 0.00 | 0.00 | 34 | 1019.8 |
| 20260905043145 | 74 | 330 | 5.0 | 9.0 | 0.00 | 0.00 | 0.00 | 35 | 1019.9 |
| 20260905043045 | 74 | 313 | 4.0 | 9.0 | 0.00 | 0.00 | 0.00 | 34 | 1019.9 |
| 20260905043001 | 74 | 307 | 4.0 | 9.0 | 0.00 | 0.00 | 0.00 | 35 | 1019.9 |
| 20260905042941 | 74 | 313 | 4.0 | 9.0 | 0.00 | 0.00 | 0.00 | 35 | 1019.9 |
| 20260905042841 | 74 | 335 | 4.0 | 9.0 | 0.00 | 0.00 | 0.00 | 35 | 1019.9 |
| 20260905042741 | 74 | 313 | 4.0 | 9.0 | 0.00 | 0.00 | 0.00 | 35 | 1019.9 |
| 20260905042641 | 74 | 327 | 4.0 | 8.0 | 0.00 | 0.00 | 0.00 | 36 | 1019.9 |
| 20260905042539 | 74 | 336 | 5.0 | 8.0 | 0.00 | 0.00 | 0.00 | 36 | 1019.9 |
| 20260905042501 | 74 | 298 | 5.0 | 8.0 | 0.00 | 0.00 | 0.00 | 36 | 1019.9 |
| 20260905042437 | 74 | 313 | 4.0 | 8.0 | 0.00 | 0.00 | 0.00 | 36 | 1019.9 |
| 20260905042337 | 74 | 328 | 4.0 | 8.0 | 0.00 | 0.00 | 0.00 | 36 | 1020.0 |
| 20260905042237 | 74 | 300 | 4.0 | 8.0 | 0.00 | 0.00 | 0.00 | 36 | 1019.9 |
| 20260905042137 | 74 | 311 | 4.0 | 8.0 | 0.00 | 0.00 | 0.00 | 36 | 1020.0 |
| 20260905042107 | 74 | 294 | 4.0 | 8.0 | 0.00 | 0.00 | 0.00 | 36 | 1019.9 |
| 20260905041943 | 74 | 301 | 4.0 | 8.0 | 0.00 | 0.00 | 0.00 | 36 | 1019.9 |
| 20260905041735 | 74 | 315 | 4.0 | 8.0 | 0.00 | 0.00 | 0.00 | 36 | 1019.9 |
| 20260905041635 | 74 | 302 | 4.0 | 8.0 | 0.00 | 0.00 | 0.00 | 36 | 1019.9 |
| 20260905041534 | 74 | 319 | 4.0 | 8.0 | 0.00 | 0.00 | 0.00 | 36 | 1019.9 |
| 20260905041502 | 74 | 305 | 4.0 | 8.0 | 0.00 | 0.00 | 0.00 | 36 | 1019.9 |
| 20260905041440 | 74 | 300 | 3.0 | 8.0 | 0.00 | 0.00 | 0.00 | 36 | 1019.9 |
| 20260905041240 | 74 | 296 | 3.0 | 7.0 | 0.00 | 0.00 | 0.00 | 36 | 1019.9 |
| 20260905041034 | 74 | 328 | 3.0 | 7.0 | 0.00 | 0.00 | 0.00 | 36 | 1019.8 |
| 20260905040959 | 74 | 317 | 3.0 | 7.0 | 0.00 | 0.00 | 0.00 | 36 | 1019.8 |
| 20260905040934 | 74 | 318 | 2.0 | 7.0 | 0.00 | 0.00 | 0.00 | 36 | 1019.9 |
| 20260905040834 | 74 | 300 | 2.0 | 7.0 | 0.00 | 0.00 | 0.00 | 35 | 1019.9 |
| 20260905040628 | 74 | 271 | 2.0 | 6.0 | 0.00 | 0.00 | 0.00 | 35 | 1019.9 |
| 20260905040538 | 74 | 294 | 2.0 | 4.0 | 0.00 | 0.00 | 0.00 | 35 | 1019.9 |
| 20260905040532 | 74 | 323 | 2.0 | 4.0 | 0.00 | 0.00 | 0.00 | 35 | 1019.9 |
| 20260905040330 | 74 | 0 | 2.0 | 4.0 | 0.00 | 0.00 | 0.00 | 35 | 1019.9 |
| 20260905040123 | 74 | 0 | 2.0 | 5.0 | 0.00 | 0.00 | 0.00 | 35 | 1019.9 |
| 20260905040032 | 74 | 0 | 2.0 | 5.0 | 0.00 | 0.00 | 0.00 | 35 | 1019.9 |
| 20260905040026 | 74 | 17 | 2.0 | 5.0 | 0.00 | 0.00 | 0.00 | 35 | 1019.9 |
| 20260905035820 | 75 | 17 | 2.0 | 5.0 | 0.00 | 0.00 | 0.00 | 35 | 1019.9 |
| 20260905035721 | 75 | 17 | 2.0 | 5.0 | 0.00 | 0.00 | 0.00 | 34 | 1019.9 |
| 20260905035513 | 75 | 32 | 2.0 | 5.0 | 0.00 | 0.00 | 0.00 | 35 | 1019.9 |
| 20260905035458 | 75 | 9 | 2.0 | 5.0 | 0.00 | 0.00 | 0.00 | 35 | 1019.9 |
| 20260905035413 | 75 | 13 | 2.0 | 5.0 | 0.00 | 0.00 | 0.00 | 35 | 1019.9 |
| 20260905035313 | 75 | 9 | 2.0 | 6.0 | 0.00 | 0.00 | 0.00 | 34 | 1019.9 |
| 20260905035208 | 76 | 13 | 3.0 | 6.0 | 0.00 | 0.00 | 0.00 | 34 | 1019.9 |
| 20260905035107 | 76 | 0 | 3.0 | 6.0 | 0.00 | 0.00 | 0.00 | 34 | 1019.9 |
| 20260905035007 | 76 | 349 | 3.0 | 6.0 | 0.00 | 0.00 | 0.00 | 34 | 1019.9 |
| 20260905034957 | 76 | 349 | 3.0 | 6.0 | 0.00 | 0.00 | 0.00 | 34 | 1019.9 |
| 20260905034907 | 76 | 349 | 3.0 | 6.0 | 0.00 | 0.00 | 0.00 | 34 | 1019.9 |
| 20260905034805 | 76 | 348 | 3.0 | 6.0 | 0.00 | 0.00 | 0.00 | 34 | 1019.9 |
| 20260905034701 | 76 | 343 | 3.0 | 6.0 | 0.00 | 0.00 | 0.00 | 34 | 1019.9 |
| 20260905034559 | 76 | 343 | 4.0 | 7.0 | 0.00 | 0.00 | 0.00 | 34 | 1019.9 |
| 20260905034459 | 76 | 331 | 4.0 | 8.0 | 0.00 | 0.00 | 0.00 | 35 | 1020.0 |
| 20260905034406 | 76 | 323 | 4.0 | 8.0 | 0.00 | 0.00 | 0.00 | 34 | 1019.9 |
| 20260905034159 | 76 | 322 | 4.0 | 8.0 | 0.00 | 0.00 | 0.00 | 36 | 1020.0 |
| 20260905034057 | 76 | 290 | 4.0 | 8.0 | 0.00 | 0.00 | 0.00 | 35 | 1020.0 |
| 20260905033958 | 76 | 264 | 4.0 | 8.0 | 0.00 | 0.00 | 0.00 | 36 | 1020.0 |
| 20260905033855 | 76 | 313 | 4.0 | 8.0 | 0.00 | 0.00 | 0.00 | 35 | 1019.9 |
| 20260905033803 | 76 | 292 | 4.0 | 8.0 | 0.00 | 0.00 | 0.00 | 35 | 1019.9 |
| 20260905033555 | 76 | 317 | 4.0 | 8.0 | 0.00 | 0.00 | 0.00 | 35 | 1019.9 |
| 20260905033505 | 76 | 313 | 4.0 | 6.0 | 0.00 | 0.00 | 0.00 | 35 | 1019.9 |
| 20260905033501 | 76 | 316 | 4.0 | 6.0 | 0.00 | 0.00 | 0.00 | 35 | 1019.9 |
| 20260905033300 | 76 | 325 | 3.0 | 5.0 | 0.00 | 0.00 | 0.00 | 34 | 1020.0 |
| 20260905033053 | 76 | 319 | 3.0 | 5.0 | 0.00 | 0.00 | 0.00 | 34 | 1019.9 |
| 20260905032955 | 76 | 300 | 3.0 | 5.0 | 0.00 | 0.00 | 0.00 | 35 | 1019.9 |
| 20260905032951 | 76 | 306 | 3.0 | 5.0 | 0.00 | 0.00 | 0.00 | 35 | 1019.9 |
| 20260905032851 | 76 | 319 | 3.0 | 5.0 | 0.00 | 0.00 | 0.00 | 35 | 1019.9 |
| 20260905032751 | 76 | 310 | 3.0 | 5.0 | 0.00 | 0.00 | 0.00 | 35 | 1019.9 |
| 20260905032652 | 76 | 310 | 3.0 | 4.0 | 0.00 | 0.00 | 0.00 | 35 | 1019.9 |
| 20260905032551 | 76 | 310 | 3.0 | 4.0 | 0.00 | 0.00 | 0.00 | 34 | 1019.9 |
| 20260905032449 | 76 | 313 | 3.0 | 4.0 | 0.00 | 0.00 | 0.00 | 34 | 1019.9 |
| 20260905032349 | 76 | 313 | 3.0 | 4.0 | 0.00 | 0.00 | 0.00 | 34 | 1019.9 |
| 20260905032249 | 76 | 313 | 3.0 | 4.0 | 0.00 | 0.00 | 0.00 | 34 | 1019.8 |
| 20260905032149 | 75 | 313 | 3.0 | 4.0 | 0.00 | 0.00 | 0.00 | 34 | 1019.9 |
| 20260905032059 | 75 | 313 | 3.0 | 4.0 | 0.00 | 0.00 | 0.00 | 34 | 1019.9 |
| 20260905031948 | 75 | 313 | 3.0 | 4.0 | 0.00 | 0.00 | 0.00 | 34 | 1019.9 |
| 20260905031856 | 75 | 313 | 2.0 | 4.0 | 0.00 | 0.00 | 0.00 | 34 | 1019.9 |
| 20260905031649 | 75 | 313 | 2.0 | 4.0 | 0.00 | 0.00 | 0.00 | 33 | 1019.9 |
| 20260905031549 | 76 | 313 | 2.0 | 4.0 | 0.00 | 0.00 | 0.00 | 33 | 1019.8 |
| 20260905031447 | 76 | 313 | 2.0 | 4.0 | 0.00 | 0.00 | 0.00 | 33 | 1019.9 |
| 20260905031347 | 76 | 313 | 2.0 | 4.0 | 0.00 | 0.00 | 0.00 | 33 | 1019.8 |
| 20260905031252 | 76 | 313 | 2.0 | 4.0 | 0.00 | 0.00 | 0.00 | 34 | 1019.8 |
| 20260905031057 | 76 | 313 | 2.0 | 4.0 | 0.00 | 0.00 | 0.00 | 33 | 1019.8 |
| 20260905031049 | 76 | 313 | 2.0 | 4.0 | 0.00 | 0.00 | 0.00 | 33 | 1019.9 |
| 20260905030846 | 76 | 313 | 2.0 | 4.0 | 0.00 | 0.00 | 0.00 | 33 | 1019.9 |
| 20260905030746 | 76 | 313 | 2.0 | 4.0 | 0.00 | 0.00 | 0.00 | 33 | 1019.8 |
| 20260905030651 | 76 | 313 | 2.0 | 4.0 | 0.00 | 0.00 | 0.00 | 33 | 1019.8 |
| 20260905030451 | 76 | 313 | 2.0 | 4.0 | 0.00 | 0.00 | 0.00 | 33 | 1019.8 |
| 20260905030445 | 76 | 313 | 2.0 | 3.0 | 0.00 | 0.00 | 0.00 | 33 | 1019.8 |
| 20260905030350 | 76 | 329 | 2.0 | 3.0 | 0.00 | 0.00 | 0.00 | 33 | 1019.8 |
| 20260905030151 | 77 | 329 | 2.0 | 3.0 | 0.00 | 0.00 | 0.00 | 33 | 1019.7 |
| 20260905025954 | 77 | 318 | 2.0 | 3.0 | 0.00 | 0.00 | 0.00 | 32 | 1019.7 |
| 20260905025950 | 77 | 318 | 2.0 | 3.0 | 0.00 | 0.00 | 0.00 | 33 | 1019.7 |
| 20260905025749 | 77 | 318 | 2.0 | 3.0 | 0.00 | 0.00 | 0.00 | 32 | 1019.7 |
| 20260905025542 | 78 | 342 | 2.0 | 4.0 | 0.00 | 0.00 | 0.00 | 32 | 1019.7 |
| 20260905025447 | 78 | 342 | 2.0 | 4.0 | 0.00 | 0.00 | 0.00 | 32 | 1019.7 |
| 20260905025441 | 78 | 342 | 2.0 | 4.0 | 0.00 | 0.00 | 0.00 | 32 | 1019.6 |
| 20260905025337 | 78 | 342 | 2.0 | 4.0 | 0.00 | 0.00 | 0.00 | 32 | 1019.6 |
| 20260905025237 | 78 | 342 | 2.0 | 4.0 | 0.00 | 0.00 | 0.00 | 32 | 1019.6 |
| 20260905025137 | 78 | 342 | 2.0 | 4.0 | 0.00 | 0.00 | 0.00 | 32 | 1019.6 |
| 20260905025037 | 78 | 342 | 2.0 | 5.0 | 0.00 | 0.00 | 0.00 | 32 | 1019.6 |
| 20260905024947 | 78 | 342 | 2.0 | 6.0 | 0.00 | 0.00 | 0.00 | 32 | 1019.6 |
| 20260905024937 | 78 | 342 | 2.0 | 6.0 | 0.00 | 0.00 | 0.00 | 32 | 1019.4 |
| 20260905024837 | 78 | 328 | 3.0 | 6.0 | 0.00 | 0.00 | 0.00 | 31 | 1019.4 |
| 20260905024743 | 78 | 328 | 3.0 | 7.0 | 0.00 | 0.00 | 0.00 | 31 | 1019.4 |
| 20260905024537 | 78 | 337 | 3.0 | 7.0 | 0.00 | 0.00 | 0.00 | 31 | 1019.4 |
| 20260905024437 | 78 | 348 | 3.0 | 7.0 | 0.00 | 0.00 | 0.00 | 31 | 1019.4 |
| 20260905024337 | 78 | 348 | 3.0 | 7.0 | 0.00 | 0.00 | 0.00 | 31 | 1019.4 |
| 20260905024245 | 78 | 348 | 4.0 | 7.0 | 0.00 | 0.00 | 0.00 | 31 | 1019.4 |
| 20260905024037 | 78 | 315 | 3.0 | 7.0 | 0.00 | 0.00 | 0.00 | 31 | 1019.3 |
| 20260905023947 | 78 | 338 | 3.0 | 7.0 | 0.00 | 0.00 | 0.00 | 31 | 1019.3 |
| 20260905023937 | 78 | 298 | 3.0 | 7.0 | 0.00 | 0.00 | 0.00 | 31 | 1019.3 |
| 20260905023837 | 78 | 321 | 3.0 | 7.0 | 0.00 | 0.00 | 0.00 | 31 | 1019.3 |
| 20260905023744 | 78 | 317 | 3.0 | 7.0 | 0.00 | 0.00 | 0.00 | 31 | 1019.4 |
| 20260905023554 | 78 | 292 | 3.0 | 7.0 | 0.00 | 0.00 | 0.00 | 32 | 1019.3 |
| 20260905023434 | 78 | 305 | 3.0 | 7.0 | 0.00 | 0.00 | 0.00 | 32 | 1019.2 |
| 20260905023333 | 78 | 300 | 3.0 | 5.0 | 0.00 | 0.00 | 0.00 | 31 | 1019.3 |
| 20260905023233 | 78 | 323 | 3.0 | 5.0 | 0.00 | 0.00 | 0.00 | 32 | 1019.3 |
| 20260905023133 | 78 | 313 | 3.0 | 5.0 | 0.00 | 0.00 | 0.00 | 32 | 1019.3 |
| 20260905023058 | 78 | 313 | 3.0 | 5.0 | 0.00 | 0.00 | 0.00 | 32 | 1019.3 |
| 20260905022947 | 78 | 316 | 2.0 | 5.0 | 0.00 | 0.00 | 0.00 | 33 | 1019.2 |
| 20260905022633 | 78 | 319 | 2.0 | 4.0 | 0.00 | 0.00 | 0.00 | 34 | 1019.2 |
| 20260905022533 | 78 | 344 | 2.0 | 6.0 | 0.00 | 0.00 | 0.00 | 34 | 1019.1 |
| 20260905022447 | 78 | 344 | 2.0 | 6.0 | 0.00 | 0.00 | 0.00 | 34 | 1019.1 |
| 20260905022433 | 78 | 351 | 2.0 | 6.0 | 0.00 | 0.00 | 0.00 | 34 | 1019.1 |
| 20260905022333 | 78 | 12 | 2.0 | 6.0 | 0.00 | 0.00 | 0.00 | 34 | 1019.2 |
| 20260905022233 | 78 | 12 | 2.0 | 6.0 | 0.00 | 0.00 | 0.00 | 34 | 1019.1 |
| 20260905022133 | 78 | 12 | 2.0 | 6.0 | 0.00 | 0.00 | 0.00 | 34 | 1019.1 |
| 20260905022033 | 78 | 30 | 2.0 | 6.0 | 0.00 | 0.00 | 0.00 | 34 | 1019.1 |
| 20260905021933 | 78 | 5 | 2.0 | 6.0 | 0.00 | 0.00 | 0.00 | 34 | 1019.1 |
| 20260905021833 | 78 | 5 | 2.0 | 6.0 | 0.00 | 0.00 | 0.00 | 34 | 1019.1 |
| 20260905021740 | 78 | 5 | 2.0 | 6.0 | 0.00 | 0.00 | 0.00 | 34 | 1019.1 |
| 20260905021540 | 78 | 32 | 2.0 | 6.0 | 0.00 | 0.00 | 0.00 | 33 | 1019.1 |
| 20260905021534 | 78 | 342 | 2.0 | 6.0 | 0.00 | 0.00 | 0.00 | 34 | 1019.0 |
| 20260905021329 | 79 | 21 | 2.0 | 6.0 | 0.00 | 0.00 | 0.00 | 33 | 1019.1 |
| 20260905021229 | 79 | 21 | 2.0 | 6.0 | 0.00 | 0.00 | 0.00 | 33 | 1019.1 |
| 20260905021129 | 79 | 336 | 2.0 | 6.0 | 0.00 | 0.00 | 0.00 | 33 | 1019.0 |
| 20260905021050 | 79 | 38 | 1.0 | 6.0 | 0.00 | 0.00 | 0.00 | 33 | 1019.0 |
| 20260905020929 | 79 | 22 | 1.0 | 4.0 | 0.00 | 0.00 | 0.00 | 33 | 1019.0 |
| 20260905020829 | 79 | 41 | 1.0 | 4.0 | 0.00 | 0.00 | 0.00 | 32 | 1019.0 |
| 20260905020729 | 79 | 53 | 1.0 | 4.0 | 0.00 | 0.00 | 0.00 | 33 | 1019.0 |
| 20260905020648 | 79 | 319 | 1.0 | 4.0 | 0.00 | 0.00 | 0.00 | 33 | 1019.1 |
| 20260905020534 | 79 | 5 | 1.0 | 4.0 | 0.00 | 0.00 | 0.00 | 34 | 1019.0 |
| 20260905020329 | 80 | 5 | 1.0 | 4.0 | 0.00 | 0.00 | 0.00 | 34 | 1019.0 |
| 20260905020236 | 80 | 5 | 1.0 | 4.0 | 0.00 | 0.00 | 0.00 | 34 | 1019.0 |
| 20260905020028 | 80 | 36 | 1.0 | 3.0 | 0.00 | 0.00 | 0.00 | 34 | 1019.0 |
| 20260905015929 | 80 | 36 | 1.0 | 3.0 | 0.00 | 0.00 | 0.00 | 34 | 1019.0 |
| 20260905015836 | 80 | 36 | 1.0 | 4.0 | 0.00 | 0.00 | 0.00 | 34 | 1019.0 |
| 20260905015626 | 80 | 36 | 2.0 | 5.0 | 0.00 | 0.00 | 0.00 | 33 | 1019.0 |
| 20260905015526 | 80 | 36 | 2.0 | 5.0 | 0.00 | 0.00 | 0.00 | 33 | 1019.0 |
| 20260905015426 | 80 | 36 | 2.0 | 5.0 | 0.00 | 0.00 | 0.00 | 32 | 1019.0 |
| 20260905015325 | 80 | 36 | 3.0 | 5.0 | 0.00 | 0.00 | 0.00 | 32 | 1019.0 |
| 20260905015250 | 81 | 36 | 3.0 | 5.0 | 0.00 | 0.00 | 0.00 | 32 | 1019.0 |
| 20260905015029 | 81 | 36 | 3.0 | 5.0 | 0.00 | 0.00 | 0.00 | 32 | 1019.0 |
| 20260905014825 | 81 | 50 | 3.0 | 5.0 | 0.00 | 0.00 | 0.00 | 31 | 1019.0 |
| 20260905014726 | 81 | 49 | 3.0 | 7.0 | 0.00 | 0.00 | 0.00 | 31 | 1019.0 |
| 20260905014625 | 81 | 32 | 3.0 | 7.0 | 0.00 | 0.00 | 0.00 | 31 | 1018.8 |
| 20260905014525 | 81 | 41 | 3.0 | 7.0 | 0.00 | 0.00 | 0.00 | 30 | 1018.8 |
| 20260905014442 | 81 | 42 | 3.0 | 7.0 | 0.00 | 0.00 | 0.00 | 30 | 1018.8 |
| 20260905014432 | 81 | 52 | 3.0 | 7.0 | 0.00 | 0.00 | 0.00 | 30 | 1018.8 |
| 20260905014224 | 81 | 28 | 3.0 | 7.0 | 0.00 | 0.00 | 0.00 | 30 | 1018.8 |
| 20260905014125 | 81 | 42 | 3.0 | 7.0 | 0.00 | 0.00 | 0.00 | 30 | 1018.8 |
| 20260905014025 | 81 | 37 | 3.0 | 7.0 | 0.00 | 0.00 | 0.00 | 29 | 1018.8 |
| 20260905013943 | 82 | 46 | 3.0 | 7.0 | 0.00 | 0.00 | 0.00 | 29 | 1018.8 |
| 20260905013925 | 82 | 49 | 3.0 | 7.0 | 0.00 | 0.00 | 0.00 | 29 | 1018.7 |
| 20260905013825 | 82 | 46 | 3.0 | 7.0 | 0.00 | 0.00 | 0.00 | 29 | 1018.8 |
| 20260905013721 | 82 | 44 | 3.0 | 7.0 | 0.00 | 0.00 | 0.00 | 28 | 1018.8 |
| 20260905013621 | 82 | 66 | 3.0 | 7.0 | 0.00 | 0.00 | 0.00 | 29 | 1018.8 |
| 20260905013520 | 82 | 78 | 3.0 | 7.0 | 0.00 | 0.00 | 0.00 | 28 | 1018.8 |
| 20260905013443 | 82 | 43 | 3.0 | 7.0 | 0.00 | 0.00 | 0.00 | 28 | 1018.8 |
| 20260905013428 | 82 | 65 | 3.0 | 7.0 | 0.00 | 0.00 | 0.00 | 28 | 1018.8 |
| 20260905013220 | 82 | 70 | 3.0 | 7.0 | 0.00 | 0.00 | 0.00 | 28 | 1018.7 |
| 20260905013139 | 82 | 43 | 4.0 | 8.0 | 0.00 | 0.00 | 0.00 | 28 | 1018.7 |
| 20260905013025 | 82 | 57 | 4.0 | 8.0 | 0.00 | 0.00 | 0.00 | 28 | 1018.7 |
| 20260905012821 | 82 | 73 | 4.0 | 9.0 | 0.00 | 0.00 | 0.00 | 28 | 1018.7 |
| 20260905012721 | 82 | 89 | 4.0 | 9.0 | 0.00 | 0.00 | 0.00 | 28 | 1018.7 |
| 20260905012628 | 83 | 80 | 4.0 | 9.0 | 0.00 | 0.00 | 0.00 | 28 | 1018.7 |
| 20260905012439 | 83 | 56 | 4.0 | 9.0 | 0.00 | 0.00 | 0.00 | 27 | 1018.6 |
| 20260905012420 | 83 | 63 | 4.0 | 9.0 | 0.00 | 0.00 | 0.00 | 27 | 1018.6 |
| 20260905012321 | 83 | 74 | 4.0 | 9.0 | 0.00 | 0.00 | 0.00 | 27 | 1018.7 |
| 20260905012221 | 83 | 73 | 4.0 | 9.0 | 0.00 | 0.00 | 0.00 | 27 | 1018.7 |
| 20260905012127 | 83 | 66 | 4.0 | 9.0 | 0.00 | 0.00 | 0.00 | 28 | 1018.7 |
| 20260905011938 | 83 | 94 | 4.0 | 9.0 | 0.00 | 0.00 | 0.00 | 27 | 1018.7 |
| 20260905011921 | 83 | 78 | 4.0 | 9.0 | 0.00 | 0.00 | 0.00 | 27 | 1018.7 |
| 20260905011815 | 83 | 79 | 4.0 | 9.0 | 0.00 | 0.00 | 0.00 | 27 | 1018.7 |
| 20260905011715 | 83 | 74 | 4.0 | 9.0 | 0.00 | 0.00 | 0.00 | 27 | 1018.7 |
| 20260905011615 | 83 | 53 | 4.0 | 9.0 | 0.00 | 0.00 | 0.00 | 27 | 1018.6 |
| 20260905011515 | 83 | 61 | 4.0 | 9.0 | 0.00 | 0.00 | 0.00 | 27 | 1018.6 |
| 20260905011438 | 83 | 63 | 4.0 | 9.0 | 0.00 | 0.00 | 0.00 | 27 | 1018.6 |
| 20260905011415 | 83 | 44 | 4.0 | 9.0 | 0.00 | 0.00 | 0.00 | 27 | 1018.6 |
| 20260905011315 | 83 | 68 | 4.0 | 9.0 | 0.00 | 0.00 | 0.00 | 27 | 1018.6 |
| 20260905011215 | 83 | 50 | 5.0 | 9.0 | 0.00 | 0.00 | 0.00 | 28 | 1018.6 |
| 20260905011133 | 83 | 62 | 5.0 | 9.0 | 0.00 | 0.00 | 0.00 | 27 | 1018.6 |
| 20260905011019 | 83 | 66 | 5.0 | 9.0 | 0.00 | 0.00 | 0.00 | 27 | 1018.6 |
| 20260905010821 | 83 | 99 | 5.0 | 9.0 | 0.00 | 0.00 | 0.00 | 27 | 1018.7 |
| 20260905010624 | 83 | 90 | 4.0 | 9.0 | 0.00 | 0.00 | 0.00 | 27 | 1018.6 |
| 20260905010620 | 83 | 84 | 4.0 | 9.0 | 0.00 | 0.00 | 0.00 | 27 | 1018.6 |
| 20260905010309 | 84 | 73 | 4.0 | 9.0 | 0.00 | 0.00 | 0.00 | 26 | 1018.6 |
| 20260905010215 | 84 | 71 | 4.0 | 9.0 | 0.00 | 0.00 | 0.00 | 27 | 1018.6 |
| 20260905005938 | 84 | 72 | 4.0 | 9.0 | 0.00 | 0.00 | 0.00 | 27 | 1018.6 |
| 20260905005901 | 84 | 88 | 4.0 | 10.0 | 0.00 | 0.00 | 0.00 | 26 | 1018.6 |
| 20260905005801 | 84 | 103 | 5.0 | 10.0 | 0.00 | 0.00 | 0.00 | 26 | 1018.6 |
| 20260905005700 | 84 | 72 | 5.0 | 10.0 | 0.00 | 0.00 | 0.00 | 27 | 1018.6 |
| 20260905005555 | 84 | 71 | 5.0 | 10.0 | 0.00 | 0.00 | 0.00 | 26 | 1018.6 |
| 20260905005455 | 84 | 83 | 5.0 | 10.0 | 0.00 | 0.00 | 0.00 | 26 | 1018.6 |
| 20260905005434 | 84 | 84 | 5.0 | 10.0 | 0.00 | 0.00 | 0.00 | 26 | 1018.6 |
| 20260905005356 | 84 | 80 | 5.0 | 10.0 | 0.00 | 0.00 | 0.00 | 26 | 1018.6 |
| 20260905005254 | 84 | 63 | 5.0 | 10.0 | 0.00 | 0.00 | 0.00 | 27 | 1018.5 |
| 20260905005154 | 84 | 92 | 5.0 | 10.0 | 0.00 | 0.00 | 0.00 | 26 | 1018.6 |
| 20260905005109 | 84 | 104 | 5.0 | 10.0 | 0.00 | 0.00 | 0.00 | 26 | 1018.6 |
| 20260905004956 | 85 | 90 | 5.0 | 10.0 | 0.00 | 0.00 | 0.00 | 26 | 1018.5 |
| 20260905004751 | 85 | 98 | 5.0 | 9.0 | 0.00 | 0.00 | 0.00 | 26 | 1018.6 |
| 20260905004651 | 85 | 80 | 5.0 | 10.0 | 0.00 | 0.00 | 0.00 | 26 | 1018.6 |
| 20260905004551 | 85 | 95 | 5.0 | 10.0 | 0.00 | 0.00 | 0.00 | 26 | 1018.5 |
| 20260905004451 | 85 | 90 | 5.0 | 10.0 | 0.00 | 0.00 | 0.00 | 26 | 1018.6 |
| 20260905004432 | 85 | 60 | 5.0 | 10.0 | 0.00 | 0.00 | 0.00 | 26 | 1018.6 |
| 20260905004356 | 85 | 73 | 5.0 | 10.0 | 0.00 | 0.00 | 0.00 | 26 | 1018.6 |
| 20260905004149 | 85 | 74 | 5.0 | 10.0 | 0.00 | 0.00 | 0.00 | 26 | 1018.6 |
| 20260905004049 | 85 | 90 | 5.0 | 10.0 | 0.00 | 0.00 | 0.00 | 25 | 1018.6 |
| 20260905003949 | 85 | 86 | 5.0 | 10.0 | 0.00 | 0.00 | 0.00 | 25 | 1018.6 |
| 20260905003932 | 85 | 92 | 5.0 | 10.0 | 0.00 | 0.00 | 0.00 | 25 | 1018.6 |
| 20260905003849 | 85 | 75 | 5.0 | 10.0 | 0.00 | 0.00 | 0.00 | 25 | 1018.6 |
| 20260905003749 | 85 | 88 | 5.0 | 10.0 | 0.00 | 0.00 | 0.00 | 25 | 1018.6 |
| 20260905003656 | 85 | 94 | 5.0 | 10.0 | 0.00 | 0.00 | 0.00 | 25 | 1018.6 |
| 20260905003448 | 85 | 105 | 5.0 | 11.0 | 0.00 | 0.00 | 0.00 | 25 | 1018.6 |
| 20260905003433 | 85 | 93 | 5.0 | 11.0 | 0.00 | 0.00 | 0.00 | 25 | 1018.6 |
| 20260905003345 | 85 | 83 | 5.0 | 11.0 | 0.00 | 0.00 | 0.00 | 25 | 1018.6 |
| 20260905003245 | 85 | 74 | 5.0 | 11.0 | 0.00 | 0.00 | 0.00 | 25 | 1018.6 |
| 20260905003144 | 85 | 63 | 6.0 | 11.0 | 0.00 | 0.00 | 0.00 | 25 | 1018.6 |
| 20260905003050 | 85 | 72 | 6.0 | 11.0 | 0.00 | 0.00 | 0.00 | 25 | 1018.6 |
| 20260905002933 | 86 | 94 | 6.0 | 11.0 | 0.00 | 0.00 | 0.00 | 25 | 1018.6 |
| 20260905002839 | 85 | 132 | 7.0 | 12.0 | 0.00 | 0.00 | 0.00 | 25 | 1018.6 |
| 20260905002738 | 86 | 57 | 7.0 | 13.0 | 0.00 | 0.00 | 0.00 | 25 | 1018.5 |
| 20260905002635 | 86 | 76 | 6.0 | 13.0 | 0.00 | 0.00 | 0.00 | 24 | 1018.6 |
| 20260905002534 | 86 | 44 | 6.0 | 13.0 | 0.00 | 0.00 | 0.00 | 24 | 1018.6 |
| 20260905002434 | 86 | 60 | 6.0 | 13.0 | 0.00 | 0.00 | 0.00 | 25 | 1018.5 |
| 20260905002331 | 86 | 98 | 6.0 | 13.0 | 0.00 | 0.00 | 0.00 | 25 | 1018.6 |
| 20260905002231 | 86 | 86 | 6.0 | 13.0 | 0.00 | 0.00 | 0.00 | 25 | 1018.5 |
| 20260905002131 | 86 | 86 | 6.0 | 13.0 | 0.00 | 0.00 | 0.00 | 25 | 1018.6 |
| 20260905002031 | 86 | 61 | 6.0 | 13.0 | 0.00 | 0.00 | 0.00 | 25 | 1018.6 |
| 20260905001927 | 86 | 98 | 5.0 | 13.0 | 0.00 | 0.00 | 0.00 | 24 | 1018.6 |
| 20260905001821 | 86 | 80 | 5.0 | 11.0 | 0.00 | 0.00 | 0.00 | 25 | 1018.6 |
| 20260905001727 | 86 | 89 | 5.0 | 10.0 | 0.00 | 0.00 | 0.00 | 25 | 1018.5 |
| 20260905001521 | 86 | 53 | 6.0 | 12.0 | 0.00 | 0.00 | 0.00 | 24 | 1018.5 |
| 20260905001420 | 86 | 124 | 6.0 | 12.0 | 0.00 | 0.00 | 0.00 | 25 | 1018.5 |
| 20260905001317 | 86 | 59 | 7.0 | 12.0 | 0.00 | 0.00 | 0.00 | 25 | 1018.5 |
| 20260905001217 | 86 | 90 | 7.0 | 12.0 | 0.00 | 0.00 | 0.00 | 24 | 1018.5 |
| 20260905001117 | 86 | 87 | 7.0 | 12.0 | 0.00 | 0.00 | 0.00 | 25 | 1018.5 |
| 20260905001015 | 86 | 96 | 7.0 | 12.0 | 0.00 | 0.00 | 0.00 | 24 | 1018.5 |
| 20260905000915 | 86 | 96 | 7.0 | 12.0 | 0.00 | 0.00 | 0.00 | 24 | 1018.5 |
| 20260905000810 | 86 | 59 | 8.0 | 12.0 | 0.00 | 0.00 | 0.00 | 24 | 1018.5 |
| 20260905000708 | 86 | 98 | 7.0 | 12.0 | 0.00 | 0.00 | 0.00 | 24 | 1018.5 |
| 20260905000616 | 87 | 50 | 6.0 | 12.0 | 0.00 | 0.00 | 0.00 | 24 | 1018.5 |
| 20260905000417 | 87 | 69 | 6.0 | 11.0 | 0.00 | 0.00 | 0.00 | 24 | 1018.4 |
| 20260905000205 | 87 | 94 | 6.0 | 11.0 | 0.00 | 0.00 | 0.00 | 24 | 1018.4 |
| 20260905000105 | 87 | 34 | 6.0 | 11.0 | 0.00 | 0.00 | 0.00 | 24 | 1018.4 |
| 20260905000005 | 87 | 95 | 6.0 | 12.0 | 0.00 | 0.00 | 0.00 | 25 | 1018.4 |
| 20260904235902 | 87 | 114 | 6.0 | 12.0 | 0.00 | 0.00 | 0.00 | 24 | 1018.4 |
| 20260904235759 | 87 | 55 | 6.0 | 12.0 | 0.00 | 0.00 | 0.00 | 24 | 1018.4 |
| 20260904235657 | 87 | 89 | 6.0 | 12.0 | 0.00 | 0.00 | 0.00 | 24 | 1018.4 |
| 20260904235557 | 87 | 67 | 6.0 | 12.0 | 0.00 | 0.00 | 0.00 | 24 | 1018.4 |
| 20260904235456 | 87 | 100 | 6.0 | 12.0 | 0.00 | 0.00 | 0.00 | 24 | 1018.4 |
| 20260904235356 | 87 | 65 | 5.0 | 12.0 | 0.00 | 0.00 | 0.00 | 24 | 1018.4 |
| 20260904235251 | 87 | 115 | 5.0 | 12.0 | 0.00 | 0.00 | 0.00 | 24 | 1018.4 |
| 20260904235151 | 87 | 97 | 5.0 | 12.0 | 0.00 | 0.00 | 0.00 | 24 | 1018.4 |
| 20260904235051 | 87 | 111 | 5.0 | 12.0 | 0.00 | 0.00 | 0.00 | 24 | 1018.4 |
| 20260904234950 | 87 | 69 | 5.0 | 10.0 | 0.00 | 0.00 | 0.00 | 24 | 1018.4 |